2016 Cux-Wetter.de -Die Nutzung der Wetterdaten nur mit ausdrcklicher Genehmigung
Wetterdaten: Dienstag, 11.06.2019
Datum Zeit Temp. A. Feuchte A. Luftdruck Regen Wind Richtung Richtung Sonnenschein Solar Taupunkt Windchill Windben
11.06.2019 00:00 15,8 C 92 % 1009,9 hPa 0,0 l/m 5,9 km/h (2 Bft) N 350 0 min 0 W/m 14,5 C 15,8 C 16,1 km/h (3 Bft)
11.06.2019 00:03 15,8 C 92 % 1010,1 hPa 0,0 l/m 4,7 km/h (1 Bft) O 98 0 min 0 W/m 14,5 C 15,8 C 11,3 km/h (2 Bft)
11.06.2019 00:06 15,8 C 92 % 1010,4 hPa 0,0 l/m 4,0 km/h (1 Bft) SO 129 0 min 0 W/m 14,5 C 15,8 C 11,3 km/h (2 Bft)
11.06.2019 00:09 15,8 C 92 % 1010,4 hPa 0,0 l/m 4,6 km/h (1 Bft) NO 46 0 min 0 W/m 14,5 C 15,8 C 16,1 km/h (3 Bft)
11.06.2019 00:12 15,7 C 93 % 1010,4 hPa 0,2 l/m 4,4 km/h (1 Bft) NO 34 0 min 0 W/m 14,6 C 15,7 C 16,1 km/h (3 Bft)
11.06.2019 00:15 15,7 C 93 % 1010,2 hPa 0,0 l/m 7,4 km/h (2 Bft) N-NO 20 0 min 0 W/m 14,6 C 15,2 C 12,9 km/h (3 Bft)
11.06.2019 00:18 15,7 C 92 % 1010,2 hPa 0,0 l/m 6,7 km/h (2 Bft) N 9 0 min 0 W/m 14,4 C 15,5 C 17,7 km/h (3 Bft)
11.06.2019 00:21 15,7 C 92 % 1010,2 hPa 0,2 l/m 5,0 km/h (1 Bft) N 355 0 min 0 W/m 14,4 C 15,7 C 16,1 km/h (3 Bft)
11.06.2019 00:24 15,6 C 93 % 1010,2 hPa 0,0 l/m 2,8 km/h (1 Bft) N 5 0 min 0 W/m 14,5 C 15,6 C 8,0 km/h (2 Bft)
11.06.2019 00:27 15,6 C 93 % 1010,1 hPa 0,0 l/m 4,4 km/h (1 Bft) NO 46 0 min 0 W/m 14,5 C 15,6 C 8,0 km/h (2 Bft)
11.06.2019 00:30 15,6 C 93 % 1010,1 hPa 0,0 l/m 4,7 km/h (1 Bft) NO 56 0 min 0 W/m 14,5 C 15,6 C 14,5 km/h (3 Bft)
11.06.2019 00:33 15,6 C 93 % 1010,0 hPa 0,0 l/m 2,8 km/h (1 Bft) N-NO 31 0 min 0 W/m 14,5 C 15,6 C 9,7 km/h (2 Bft)
11.06.2019 00:36 15,6 C 93 % 1009,9 hPa 0,0 l/m 6,3 km/h (2 Bft) SO 135 0 min 0 W/m 14,5 C 15,6 C 14,5 km/h (3 Bft)
11.06.2019 00:39 15,6 C 93 % 1009,8 hPa 0,2 l/m 6,1 km/h (2 Bft) NW 305 0 min 0 W/m 14,5 C 15,6 C 16,1 km/h (3 Bft)
11.06.2019 00:42 15,5 C 93 % 1009,8 hPa 0,0 l/m 4,7 km/h (1 Bft) NO 40 0 min 0 W/m 14,4 C 15,5 C 11,3 km/h (2 Bft)
11.06.2019 00:45 15,5 C 93 % 1009,8 hPa 0,0 l/m 4,3 km/h (1 Bft) N-NO 22 0 min 0 W/m 14,4 C 15,5 C 9,7 km/h (2 Bft)
11.06.2019 00:48 15,5 C 93 % 1009,7 hPa 0,0 l/m 4,7 km/h (1 Bft) N-NO 21 0 min 0 W/m 14,4 C 15,5 C 12,9 km/h (3 Bft)
11.06.2019 00:51 15,5 C 93 % 1009,7 hPa 0,0 l/m 4,1 km/h (1 Bft) N-NW 333 0 min 0 W/m 14,4 C 15,5 C 9,7 km/h (2 Bft)
11.06.2019 00:54 15,4 C 93 % 1009,8 hPa 0,0 l/m 6,6 km/h (2 Bft) NO 42 0 min 0 W/m 14,3 C 15,3 C 16,1 km/h (3 Bft)
11.06.2019 00:57 15,4 C 93 % 1009,7 hPa 0,0 l/m 3,8 km/h (1 Bft) N 5 0 min 0 W/m 14,3 C 15,4 C 6,4 km/h (2 Bft)
11.06.2019 01:00 15,4 C 93 % 1009,7 hPa 0,0 l/m 4,3 km/h (1 Bft) NW 313 0 min 0 W/m 14,3 C 15,4 C 11,3 km/h (2 Bft)
11.06.2019 01:03 15,4 C 93 % 1009,7 hPa 0,0 l/m 3,9 km/h (1 Bft) NO 42 0 min 0 W/m 14,3 C 15,4 C 12,9 km/h (3 Bft)
11.06.2019 01:06 15,4 C 93 % 1009,5 hPa 0,0 l/m 5,4 km/h (2 Bft) N-NO 13 0 min 0 W/m 14,3 C 15,4 C 11,3 km/h (2 Bft)
11.06.2019 01:09 15,4 C 93 % 1009,5 hPa 0,0 l/m 6,4 km/h (2 Bft) N-NO 32 0 min 0 W/m 14,3 C 15,4 C 14,5 km/h (3 Bft)
11.06.2019 01:12 15,3 C 93 % 1009,6 hPa 0,0 l/m 7,3 km/h (2 Bft) N 5 0 min 0 W/m 14,2 C 14,8 C 20,9 km/h (4 Bft)
11.06.2019 01:15 15,3 C 93 % 1009,7 hPa 0,0 l/m 4,9 km/h (1 Bft) NO 34 0 min 0 W/m 14,2 C 15,3 C 11,3 km/h (2 Bft)
11.06.2019 01:18 15,3 C 93 % 1009,6 hPa 0,0 l/m 5,3 km/h (1 Bft) N-NO 27 0 min 0 W/m 14,2 C 15,3 C 16,1 km/h (3 Bft)
11.06.2019 01:21 15,2 C 93 % 1009,5 hPa 0,0 l/m 4,1 km/h (1 Bft) N-NO 17 0 min 0 W/m 14,1 C 15,2 C 8,0 km/h (2 Bft)
11.06.2019 01:24 15,2 C 94 % 1009,5 hPa 0,0 l/m 6,3 km/h (2 Bft) O 92 0 min 0 W/m 14,2 C 15,2 C 16,1 km/h (3 Bft)
11.06.2019 01:27 15,2 C 94 % 1009,5 hPa 0,0 l/m 4,5 km/h (1 Bft) NO 54 0 min 0 W/m 14,2 C 15,2 C 17,7 km/h (3 Bft)
11.06.2019 01:30 15,2 C 94 % 1009,5 hPa 0,0 l/m 4,3 km/h (1 Bft) O-NO 63 0 min 0 W/m 14,2 C 15,2 C 14,5 km/h (3 Bft)
11.06.2019 01:33 15,2 C 94 % 1009,6 hPa 0,0 l/m 3,5 km/h (1 Bft) SO 130 0 min 0 W/m 14,2 C 15,2 C 9,7 km/h (2 Bft)
11.06.2019 01:36 15,2 C 94 % 1009,7 hPa 0,0 l/m 5,4 km/h (2 Bft) W-NW 298 0 min 0 W/m 14,2 C 15,2 C 14,5 km/h (3 Bft)
11.06.2019 01:39 15,2 C 94 % 1009,6 hPa 0,0 l/m 7,3 km/h (2 Bft) N-NO 33 0 min 0 W/m 14,2 C 14,7 C 17,7 km/h (3 Bft)
11.06.2019 01:42 15,2 C 94 % 1009,4 hPa 0,0 l/m 5,0 km/h (1 Bft) O-NO 59 0 min 0 W/m 14,2 C 15,2 C 9,7 km/h (2 Bft)
11.06.2019 01:45 15,1 C 94 % 1009,4 hPa 0,0 l/m 5,9 km/h (2 Bft) NO 51 0 min 0 W/m 14,1 C 15,1 C 12,9 km/h (3 Bft)
11.06.2019 01:48 15,1 C 94 % 1009,4 hPa 0,0 l/m 5,4 km/h (2 Bft) N-NO 24 0 min 0 W/m 14,1 C 15,1 C 19,3 km/h (3 Bft)
11.06.2019 01:51 15,1 C 94 % 1009,4 hPa 0,0 l/m 5,2 km/h (1 Bft) NO 46 0 min 0 W/m 14,1 C 15,1 C 16,1 km/h (3 Bft)
11.06.2019 01:54 15,1 C 94 % 1009,3 hPa 0,0 l/m 4,4 km/h (1 Bft) O-NO 57 0 min 0 W/m 14,1 C 15,1 C 9,7 km/h (2 Bft)
11.06.2019 01:57 15,1 C 94 % 1009,4 hPa 0,0 l/m 4,9 km/h (1 Bft) O 91 0 min 0 W/m 14,1 C 15,1 C 14,5 km/h (3 Bft)
11.06.2019 02:00 15,1 C 94 % 1009,2 hPa 0,0 l/m 3,9 km/h (1 Bft) NW 306 0 min 0 W/m 14,1 C 15,1 C 9,7 km/h (2 Bft)
11.06.2019 02:03 15,1 C 94 % 1009,3 hPa 0,0 l/m 3,4 km/h (1 Bft) N-NO 30 0 min 0 W/m 14,1 C 15,1 C 11,3 km/h (2 Bft)
11.06.2019 02:06 15,1 C 94 % 1009,2 hPa 0,0 l/m 5,5 km/h (2 Bft) SW 225 0 min 0 W/m 14,1 C 15,1 C 16,1 km/h (3 Bft)
11.06.2019 02:09 15,1 C 94 % 1009,1 hPa 0,0 l/m 3,8 km/h (1 Bft) SO 132 0 min 0 W/m 14,1 C 15,1 C 8,0 km/h (2 Bft)
11.06.2019 02:12 15,1 C 94 % 1009,0 hPa 0,0 l/m 4,0 km/h (1 Bft) N 360 0 min 0 W/m 14,1 C 15,1 C 12,9 km/h (3 Bft)
11.06.2019 02:15 15,1 C 94 % 1009,0 hPa 0,0 l/m 5,7 km/h (2 Bft) O-SO 115 0 min 0 W/m 14,1 C 15,1 C 12,9 km/h (3 Bft)
11.06.2019 02:18 15,1 C 94 % 1009,0 hPa 0,0 l/m 5,3 km/h (1 Bft) O-NO 61 0 min 0 W/m 14,1 C 15,1 C 16,1 km/h (3 Bft)
11.06.2019 02:21 15,1 C 94 % 1008,9 hPa 0,0 l/m 3,0 km/h (1 Bft) O-NO 61 0 min 0 W/m 14,1 C 15,1 C 8,0 km/h (2 Bft)
11.06.2019 02:24 15,1 C 94 % 1008,8 hPa 0,0 l/m 4,0 km/h (1 Bft) O 101 0 min 0 W/m 14,1 C 15,1 C 19,3 km/h (3 Bft)
11.06.2019 02:27 15,1 C 94 % 1008,9 hPa 0,0 l/m 5,7 km/h (2 Bft) O-NO 71 0 min 0 W/m 14,1 C 15,1 C 14,5 km/h (3 Bft)
11.06.2019 02:30 15,2 C 94 % 1008,8 hPa 0,0 l/m 3,7 km/h (1 Bft) O 101 0 min 0 W/m 14,2 C 15,2 C 12,9 km/h (3 Bft)
11.06.2019 02:33 15,2 C 94 % 1008,9 hPa 0,0 l/m 4,3 km/h (1 Bft) O 94 0 min 0 W/m 14,2 C 15,2 C 9,7 km/h (2 Bft)
11.06.2019 02:36 15,2 C 94 % 1008,9 hPa 0,0 l/m 3,8 km/h (1 Bft) O-NO 75 0 min 0 W/m 14,2 C 15,2 C 11,3 km/h (2 Bft)
11.06.2019 02:39 15,2 C 94 % 1009,0 hPa 0,0 l/m 2,6 km/h (1 Bft) O-NO 74 0 min 0 W/m 14,2 C 15,2 C 8,0 km/h (2 Bft)
11.06.2019 02:42 15,2 C 94 % 1009,0 hPa 0,0 l/m 5,8 km/h (2 Bft) O-NO 57 0 min 0 W/m 14,2 C 15,2 C 14,5 km/h (3 Bft)
11.06.2019 02:45 15,2 C 95 % 1009,0 hPa 0,0 l/m 3,6 km/h (1 Bft) NO 55 0 min 0 W/m 14,4 C 15,2 C 11,3 km/h (2 Bft)
11.06.2019 02:48 15,3 C 95 % 1008,9 hPa 0,0 l/m 4,8 km/h (1 Bft) NO 54 0 min 0 W/m 14,5 C 15,3 C 11,3 km/h (2 Bft)
11.06.2019 02:51 15,3 C 95 % 1009,0 hPa 0,0 l/m 3,3 km/h (1 Bft) NO 54 0 min 0 W/m 14,5 C 15,3 C 8,0 km/h (2 Bft)
11.06.2019 02:54 15,3 C 95 % 1008,9 hPa 0,0 l/m 2,1 km/h (1 Bft) NO 54 0 min 0 W/m 14,5 C 15,3 C 6,4 km/h (2 Bft)
11.06.2019 02:57 15,3 C 95 % 1008,9 hPa 0,0 l/m 3,3 km/h (1 Bft) NO 54 0 min 0 W/m 14,5 C 15,3 C 8,0 km/h (2 Bft)
11.06.2019 03:00 15,3 C 95 % 1008,9 hPa 0,0 l/m 1,8 km/h (1 Bft) NO 54 0 min 0 W/m 14,5 C 15,3 C 4,8 km/h (1 Bft)
11.06.2019 03:03 15,3 C 95 % 1008,9 hPa 0,0 l/m 2,0 km/h (1 Bft) NO 54 0 min 0 W/m 14,5 C 15,3 C 6,4 km/h (2 Bft)
11.06.2019 03:06 15,3 C 95 % 1009,0 hPa 0,0 l/m 1,6 km/h (1 Bft) NO 54 0 min 0 W/m 14,5 C 15,3 C 6,4 km/h (2 Bft)
11.06.2019 03:09 15,3 C 94 % 1008,9 hPa 0,0 l/m 2,8 km/h (1 Bft) NO 54 0 min 0 W/m 14,3 C 15,3 C 6,4 km/h (2 Bft)
11.06.2019 03:12 15,3 C 94 % 1008,9 hPa 0,0 l/m 3,1 km/h (1 Bft) NO 54 0 min 0 W/m 14,3 C 15,3 C 8,0 km/h (2 Bft)
11.06.2019 03:15 15,3 C 95 % 1008,9 hPa 0,0 l/m 4,5 km/h (1 Bft) NO 43 0 min 0 W/m 14,5 C 15,3 C 17,7 km/h (3 Bft)
11.06.2019 03:18 15,3 C 95 % 1008,9 hPa 0,0 l/m 5,7 km/h (2 Bft) N 355 0 min 0 W/m 14,5 C 15,3 C 14,5 km/h (3 Bft)
11.06.2019 03:21 15,3 C 95 % 1008,8 hPa 0,0 l/m 5,2 km/h (1 Bft) O-NO 72 0 min 0 W/m 14,5 C 15,3 C 9,7 km/h (2 Bft)
11.06.2019 03:24 15,3 C 95 % 1008,8 hPa 0,0 l/m 5,2 km/h (1 Bft) NO 44 0 min 0 W/m 14,5 C 15,3 C 14,5 km/h (3 Bft)
11.06.2019 03:27 15,3 C 94 % 1008,7 hPa 0,0 l/m 4,4 km/h (1 Bft) O 80 0 min 0 W/m 14,3 C 15,3 C 12,9 km/h (3 Bft)
11.06.2019 03:30 15,2 C 95 % 1008,6 hPa 0,0 l/m 7,6 km/h (2 Bft) S-SO 167 0 min 0 W/m 14,4 C 14,5 C 19,3 km/h (3 Bft)
11.06.2019 03:33 15,2 C 94 % 1008,5 hPa 0,0 l/m 5,8 km/h (2 Bft) N-NO 25 0 min 0 W/m 14,2 C 15,2 C 17,7 km/h (3 Bft)
11.06.2019 03:36 15,1 C 94 % 1008,5 hPa 0,0 l/m 6,4 km/h (2 Bft) SO 126 0 min 0 W/m 14,1 C 15,1 C 16,1 km/h (3 Bft)
11.06.2019 03:39 15,1 C 94 % 1008,5 hPa 0,0 l/m 6,3 km/h (2 Bft) N-NO 33 0 min 0 W/m 14,1 C 15,1 C 19,3 km/h (3 Bft)
11.06.2019 03:42 14,9 C 95 % 1008,3 hPa 0,0 l/m 4,8 km/h (1 Bft) O-SO 102 0 min 0 W/m 14,1 C 14,9 C 16,1 km/h (3 Bft)
11.06.2019 03:45 14,9 C 95 % 1008,3 hPa 0,0 l/m 5,0 km/h (1 Bft) NO 40 0 min 0 W/m 14,1 C 14,9 C 12,9 km/h (3 Bft)
11.06.2019 03:48 14,8 C 95 % 1008,4 hPa 0,0 l/m 4,7 km/h (1 Bft) S-SO 158 0 min 0 W/m 14,0 C 14,8 C 12,9 km/h (3 Bft)
11.06.2019 03:51 14,8 C 94 % 1008,3 hPa 0,0 l/m 6,9 km/h (2 Bft) NO 42 0 min 0 W/m 13,8 C 14,5 C 16,1 km/h (3 Bft)
11.06.2019 03:54 14,8 C 94 % 1008,3 hPa 0,0 l/m 5,1 km/h (1 Bft) N-NO 24 0 min 0 W/m 13,8 C 14,8 C 12,9 km/h (3 Bft)
11.06.2019 03:57 14,7 C 94 % 1008,3 hPa 0,0 l/m 7,2 km/h (2 Bft) O-SO 119 0 min 0 W/m 13,7 C 14,2 C 16,1 km/h (3 Bft)
11.06.2019 04:00 14,7 C 94 % 1008,2 hPa 0,0 l/m 8,7 km/h (2 Bft) O-NO 69 0 min 0 W/m 13,7 C 13,4 C 22,5 km/h (4 Bft)
11.06.2019 04:03 14,7 C 95 % 1008,2 hPa 0,0 l/m 7,0 km/h (2 Bft) NO 56 0 min 0 W/m 13,9 C 14,4 C 14,5 km/h (3 Bft)
11.06.2019 04:06 14,7 C 95 % 1008,2 hPa 0,0 l/m 6,2 km/h (2 Bft) O-NO 63 0 min 0 W/m 13,9 C 14,7 C 22,5 km/h (4 Bft)
11.06.2019 04:09 14,6 C 95 % 1008,2 hPa 0,0 l/m 6,0 km/h (2 Bft) O-NO 71 0 min 0 W/m 13,8 C 14,6 C 22,5 km/h (4 Bft)
11.06.2019 04:12 14,6 C 95 % 1008,2 hPa 0,0 l/m 4,7 km/h (1 Bft) O 100 0 min 0 W/m 13,8 C 14,6 C 12,9 km/h (3 Bft)
11.06.2019 04:15 14,6 C 95 % 1008,1 hPa 0,0 l/m 3,7 km/h (1 Bft) O 80 0 min 0 W/m 13,8 C 14,6 C 12,9 km/h (3 Bft)
11.06.2019 04:18 14,6 C 95 % 1008,0 hPa 0,0 l/m 3,7 km/h (1 Bft) N 5 0 min 0 W/m 13,8 C 14,6 C 11,3 km/h (2 Bft)
11.06.2019 04:21 14,6 C 95 % 1008,0 hPa 0,0 l/m 3,0 km/h (1 Bft) N 5 0 min 0 W/m 13,8 C 14,6 C 9,7 km/h (2 Bft)
11.06.2019 04:24 14,6 C 95 % 1007,9 hPa 0,0 l/m 4,4 km/h (1 Bft) O-SO 120 0 min 0 W/m 13,8 C 14,6 C 12,9 km/h (3 Bft)
11.06.2019 04:27 14,6 C 95 % 1007,8 hPa 0,0 l/m 4,8 km/h (1 Bft) O-NO 70 0 min 0 W/m 13,8 C 14,6 C 11,3 km/h (2 Bft)
11.06.2019 04:30 14,6 C 95 % 1007,8 hPa 0,0 l/m 5,4 km/h (2 Bft) NO 49 0 min 0 W/m 13,8 C 14,6 C 14,5 km/h (3 Bft)
11.06.2019 04:33 14,5 C 95 % 1007,7 hPa 0,0 l/m 5,6 km/h (2 Bft) N-NO 32 0 min 0 W/m 13,7 C 14,5 C 20,9 km/h (4 Bft)
11.06.2019 04:36 14,5 C 95 % 1007,7 hPa 0,0 l/m 4,3 km/h (1 Bft) N 5 0 min 0 W/m 13,7 C 14,5 C 12,9 km/h (3 Bft)
11.06.2019 04:39 14,5 C 95 % 1007,7 hPa 0,0 l/m 5,2 km/h (1 Bft) NO 50 0 min 0 W/m 13,7 C 14,5 C 11,3 km/h (2 Bft)
11.06.2019 04:42 14,5 C 95 % 1007,7 hPa 0,0 l/m 6,1 km/h (2 Bft) NO 39 0 min 0 W/m 13,7 C 14,5 C 16,1 km/h (3 Bft)
11.06.2019 04:45 14,4 C 95 % 1007,8 hPa 0,0 l/m 6,0 km/h (2 Bft) N 9 0 min 0 W/m 13,6 C 14,4 C 19,3 km/h (3 Bft)
11.06.2019 04:48 14,4 C 95 % 1007,9 hPa 0,0 l/m 4,4 km/h (1 Bft) N-NO 12 0 min 0 W/m 13,6 C 14,4 C 11,3 km/h (2 Bft)
11.06.2019 04:51 14,4 C 95 % 1007,9 hPa 0,0 l/m 4,4 km/h (1 Bft) N-NO 17 0 min 0 W/m 13,6 C 14,4 C 14,5 km/h (3 Bft)
11.06.2019 04:54 14,4 C 95 % 1007,8 hPa 0,0 l/m 4,6 km/h (1 Bft) NO 40 0 min 0 W/m 13,6 C 14,4 C 14,5 km/h (3 Bft)
11.06.2019 04:57 14,4 C 95 % 1007,8 hPa 0,0 l/m 2,3 km/h (1 Bft) NO 40 0 min 0 W/m 13,6 C 14,4 C 6,4 km/h (2 Bft)
11.06.2019 05:00 14,4 C 95 % 1007,8 hPa 0,0 l/m 5,3 km/h (1 Bft) NW 319 0 min 0 W/m 13,6 C 14,4 C 12,9 km/h (3 Bft)
11.06.2019 05:03 14,4 C 95 % 1007,9 hPa 0,0 l/m 3,6 km/h (1 Bft) N-NO 24 0 min 0 W/m 13,6 C 14,4 C 9,7 km/h (2 Bft)
11.06.2019 05:06 14,4 C 95 % 1007,9 hPa 0,0 l/m 3,4 km/h (1 Bft) N 360 0 min 0 W/m 13,6 C 14,4 C 8,0 km/h (2 Bft)
11.06.2019 05:09 14,4 C 95 % 1008,0 hPa 0,0 l/m 2,5 km/h (1 Bft) N-NO 24 0 min 0 W/m 13,6 C 14,4 C 8,0 km/h (2 Bft)
11.06.2019 05:12 14,4 C 95 % 1008,0 hPa 0,0 l/m 1,7 km/h (1 Bft) N-NO 23 0 min 0 W/m 13,6 C 14,4 C 6,4 km/h (2 Bft)
11.06.2019 05:15 14,4 C 95 % 1008,0 hPa 0,0 l/m 2,4 km/h (1 Bft) N-NO 23 0 min 5 W/m 13,6 C 14,4 C 6,4 km/h (2 Bft)
11.06.2019 05:18 14,4 C 95 % 1008,0 hPa 0,0 l/m 1,3 km/h (1 Bft) N-NO 23 0 min 7 W/m 13,6 C 14,4 C 4,8 km/h (1 Bft)
11.06.2019 05:21 14,4 C 95 % 1008,0 hPa 0,0 l/m 0,7 km/h (0 Bft) N-NO 23 0 min 9 W/m 13,6 C 14,4 C 3,2 km/h (1 Bft)
11.06.2019 05:24 14,4 C 95 % 1008,1 hPa 0,0 l/m 1,5 km/h (1 Bft) N-NO 22 0 min 7 W/m 13,6 C 14,4 C 4,8 km/h (1 Bft)
11.06.2019 05:27 14,4 C 95 % 1008,1 hPa 0,0 l/m 0,9 km/h (0 Bft) N-NO 22 0 min 9 W/m 13,6 C 14,4 C 3,2 km/h (1 Bft)
11.06.2019 05:30 14,4 C 95 % 1008,2 hPa 0,0 l/m 1,6 km/h (1 Bft) N-NO 22 0 min 9 W/m 13,6 C 14,4 C 4,8 km/h (1 Bft)
11.06.2019 05:33 14,4 C 95 % 1008,2 hPa 0,0 l/m 1,6 km/h (1 Bft) N-NO 22 0 min 9 W/m 13,6 C 14,4 C 6,4 km/h (2 Bft)
11.06.2019 05:36 14,4 C 95 % 1008,2 hPa 0,0 l/m 1,0 km/h (0 Bft) N-NO 22 0 min 9 W/m 13,6 C 14,4 C 3,2 km/h (1 Bft)
11.06.2019 05:39 14,4 C 95 % 1008,2 hPa 0,0 l/m 1,3 km/h (1 Bft) N-NO 22 0 min 11 W/m 13,6 C 14,4 C 3,2 km/h (1 Bft)
11.06.2019 05:42 14,4 C 95 % 1008,3 hPa 0,0 l/m 0,0 km/h (0 Bft) N-NO 22 0 min 11 W/m 13,6 C 14,4 C 0,0 km/h (0 Bft)
11.06.2019 05:45 14,4 C 95 % 1008,4 hPa 0,0 l/m 0,5 km/h (0 Bft) N-NO 22 0 min 14 W/m 13,6 C 14,4 C 3,2 km/h (1 Bft)
11.06.2019 05:48 14,4 C 95 % 1008,3 hPa 0,0 l/m 2,0 km/h (1 Bft) N-NO 23 0 min 14 W/m 13,6 C 14,4 C 6,4 km/h (2 Bft)
11.06.2019 05:51 14,4 C 95 % 1008,3 hPa 0,0 l/m 3,9 km/h (1 Bft) N-NO 24 0 min 14 W/m 13,6 C 14,4 C 9,7 km/h (2 Bft)
11.06.2019 05:54 14,4 C 95 % 1008,3 hPa 0,0 l/m 2,2 km/h (1 Bft) N-NO 24 0 min 14 W/m 13,6 C 14,4 C 4,8 km/h (1 Bft)
11.06.2019 05:57 14,5 C 95 % 1008,2 hPa 0,0 l/m 1,5 km/h (1 Bft) N-NO 23 0 min 14 W/m 13,7 C 14,5 C 4,8 km/h (1 Bft)
11.06.2019 06:00 14,5 C 95 % 1008,2 hPa 0,0 l/m 3,9 km/h (1 Bft) N-NO 24 0 min 18 W/m 13,7 C 14,5 C 8,0 km/h (2 Bft)
11.06.2019 06:03 14,5 C 95 % 1008,0 hPa 0,0 l/m 2,8 km/h (1 Bft) N-NO 24 0 min 18 W/m 13,7 C 14,5 C 8,0 km/h (2 Bft)
11.06.2019 06:06 14,5 C 95 % 1008,1 hPa 0,0 l/m 2,3 km/h (1 Bft) N-NO 24 0 min 21 W/m 13,7 C 14,5 C 6,4 km/h (2 Bft)
11.06.2019 06:09 14,6 C 95 % 1008,1 hPa 0,0 l/m 2,2 km/h (1 Bft) N-NO 24 0 min 23 W/m 13,8 C 14,6 C 6,4 km/h (2 Bft)
11.06.2019 06:12 14,6 C 95 % 1008,1 hPa 0,0 l/m 2,3 km/h (1 Bft) N-NO 27 0 min 25 W/m 13,8 C 14,6 C 9,7 km/h (2 Bft)
11.06.2019 06:15 14,6 C 95 % 1008,1 hPa 0,0 l/m 3,1 km/h (1 Bft) N-NO 32 0 min 26 W/m 13,8 C 14,6 C 8,0 km/h (2 Bft)
11.06.2019 06:18 14,6 C 95 % 1008,1 hPa 0,0 l/m 1,8 km/h (1 Bft) N-NO 32 0 min 26 W/m 13,8 C 14,6 C 8,0 km/h (2 Bft)
11.06.2019 06:21 14,6 C 95 % 1008,0 hPa 0,0 l/m 3,0 km/h (1 Bft) N-NO 32 0 min 28 W/m 13,8 C 14,6 C 6,4 km/h (2 Bft)
11.06.2019 06:24 14,6 C 95 % 1008,0 hPa 0,0 l/m 1,3 km/h (1 Bft) N-NO 32 0 min 35 W/m 13,8 C 14,6 C 3,2 km/h (1 Bft)
11.06.2019 06:27 14,6 C 95 % 1008,0 hPa 0,0 l/m 2,2 km/h (1 Bft) N-NO 32 0 min 40 W/m 13,8 C 14,6 C 6,4 km/h (2 Bft)
11.06.2019 06:30 14,7 C 95 % 1008,0 hPa 0,0 l/m 2,5 km/h (1 Bft) N-NO 32 0 min 37 W/m 13,9 C 14,7 C 8,0 km/h (2 Bft)
11.06.2019 06:33 14,7 C 95 % 1007,9 hPa 0,0 l/m 1,9 km/h (1 Bft) N-NO 32 0 min 39 W/m 13,9 C 14,7 C 6,4 km/h (2 Bft)
11.06.2019 06:36 14,7 C 95 % 1007,9 hPa 0,0 l/m 3,1 km/h (1 Bft) N-NO 32 0 min 39 W/m 13,9 C 14,7 C 8,0 km/h (2 Bft)
11.06.2019 06:39 14,7 C 95 % 1007,9 hPa 0,0 l/m 1,6 km/h (1 Bft) N-NO 32 0 min 40 W/m 13,9 C 14,7 C 4,8 km/h (1 Bft)
11.06.2019 06:42 14,7 C 95 % 1007,8 hPa 0,0 l/m 2,1 km/h (1 Bft) N-NO 32 0 min 42 W/m 13,9 C 14,7 C 8,0 km/h (2 Bft)
11.06.2019 06:45 14,8 C 95 % 1007,8 hPa 0,0 l/m 3,0 km/h (1 Bft) N-NO 32 0 min 46 W/m 14,0 C 14,8 C 8,0 km/h (2 Bft)
11.06.2019 06:48 14,8 C 95 % 1008,0 hPa 0,0 l/m 0,9 km/h (0 Bft) N-NO 32 0 min 47 W/m 14,0 C 14,8 C 3,2 km/h (1 Bft)
11.06.2019 06:51 14,8 C 95 % 1008,0 hPa 0,0 l/m 1,3 km/h (1 Bft) N-NO 32 0 min 47 W/m 14,0 C 14,8 C 4,8 km/h (1 Bft)
11.06.2019 06:54 14,8 C 95 % 1008,1 hPa 0,0 l/m 2,2 km/h (1 Bft) N-NO 32 0 min 51 W/m 14,0 C 14,8 C 6,4 km/h (2 Bft)
11.06.2019 06:57 15,0 C 96 % 1008,0 hPa 0,0 l/m 2,7 km/h (1 Bft) N-NO 32 0 min 62 W/m 14,4 C 15,0 C 6,4 km/h (2 Bft)
11.06.2019 07:00 15,1 C 96 % 1007,9 hPa 0,0 l/m 2,0 km/h (1 Bft) N-NO 32 0 min 67 W/m 14,5 C 15,1 C 4,8 km/h (1 Bft)
11.06.2019 07:03 15,1 C 96 % 1007,9 hPa 0,0 l/m 2,9 km/h (1 Bft) NO 34 0 min 62 W/m 14,5 C 15,1 C 8,0 km/h (2 Bft)
11.06.2019 07:06 15,2 C 96 % 1007,9 hPa 0,0 l/m 2,6 km/h (1 Bft) NO 36 0 min 58 W/m 14,6 C 15,2 C 9,7 km/h (2 Bft)
11.06.2019 07:09 15,2 C 96 % 1008,1 hPa 0,0 l/m 1,5 km/h (1 Bft) NO 36 0 min 63 W/m 14,6 C 15,2 C 3,2 km/h (1 Bft)
11.06.2019 07:12 15,2 C 96 % 1008,1 hPa 0,0 l/m 2,6 km/h (1 Bft) NO 36 0 min 88 W/m 14,6 C 15,2 C 8,0 km/h (2 Bft)
11.06.2019 07:15 15,3 C 96 % 1008,1 hPa 0,0 l/m 1,9 km/h (1 Bft) NO 40 0 min 121 W/m 14,7 C 15,3 C 4,8 km/h (1 Bft)
11.06.2019 07:18 15,3 C 96 % 1008,1 hPa 0,0 l/m 1,8 km/h (1 Bft) NO 40 0 min 113 W/m 14,7 C 15,3 C 6,4 km/h (2 Bft)
11.06.2019 07:21 15,4 C 96 % 1008,2 hPa 0,0 l/m 4,9 km/h (1 Bft) O-SO 120 0 min 95 W/m 14,8 C 15,4 C 9,7 km/h (2 Bft)
11.06.2019 07:24 15,3 C 96 % 1008,2 hPa 0,0 l/m 4,4 km/h (1 Bft) O-SO 113 0 min 74 W/m 14,7 C 15,3 C 9,7 km/h (2 Bft)
11.06.2019 07:27 15,3 C 96 % 1008,2 hPa 0,0 l/m 2,7 km/h (1 Bft) O-SO 113 0 min 58 W/m 14,7 C 15,3 C 6,4 km/h (2 Bft)
11.06.2019 07:30 15,3 C 96 % 1008,2 hPa 0,0 l/m 3,3 km/h (1 Bft) O-SO 118 0 min 42 W/m 14,7 C 15,3 C 9,7 km/h (2 Bft)
11.06.2019 07:33 15,3 C 96 % 1008,2 hPa 0,0 l/m 2,5 km/h (1 Bft) O-SO 118 0 min 44 W/m 14,7 C 15,3 C 4,8 km/h (1 Bft)
11.06.2019 07:36 15,3 C 96 % 1008,2 hPa 0,0 l/m 3,0 km/h (1 Bft) O-SO 119 0 min 44 W/m 14,7 C 15,3 C 6,4 km/h (2 Bft)
11.06.2019 07:39 15,3 C 96 % 1008,4 hPa 0,0 l/m 2,8 km/h (1 Bft) SO 124 0 min 40 W/m 14,7 C 15,3 C 11,3 km/h (2 Bft)
11.06.2019 07:42 15,3 C 96 % 1008,4 hPa 0,0 l/m 3,8 km/h (1 Bft) O-SO 123 0 min 35 W/m 14,7 C 15,3 C 11,3 km/h (2 Bft)
11.06.2019 07:45 15,3 C 96 % 1008,5 hPa 0,0 l/m 3,7 km/h (1 Bft) S 176 0 min 26 W/m 14,7 C 15,3 C 12,9 km/h (3 Bft)
11.06.2019 07:48 15,3 C 96 % 1008,5 hPa 0,0 l/m 2,4 km/h (1 Bft) S 174 0 min 23 W/m 14,7 C 15,3 C 6,4 km/h (2 Bft)
11.06.2019 07:51 15,3 C 96 % 1008,6 hPa 0,0 l/m 2,0 km/h (1 Bft) S 174 0 min 19 W/m 14,7 C 15,3 C 4,8 km/h (1 Bft)
11.06.2019 07:54 15,3 C 96 % 1008,7 hPa 0,0 l/m 2,8 km/h (1 Bft) S 172 0 min 14 W/m 14,7 C 15,3 C 11,3 km/h (2 Bft)
11.06.2019 07:57 15,3 C 96 % 1008,7 hPa 0,0 l/m 4,5 km/h (1 Bft) O-SO 119 0 min 12 W/m 14,7 C 15,3 C 11,3 km/h (2 Bft)
11.06.2019 08:00 15,3 C 96 % 1008,6 hPa 0,0 l/m 2,2 km/h (1 Bft) O-SO 119 0 min 12 W/m 14,7 C 15,3 C 6,4 km/h (2 Bft)
11.06.2019 08:03 15,3 C 96 % 1008,6 hPa 0,0 l/m 2,4 km/h (1 Bft) O-SO 119 0 min 12 W/m 14,7 C 15,3 C 4,8 km/h (1 Bft)
11.06.2019 08:06 15,3 C 96 % 1008,6 hPa 0,0 l/m 2,1 km/h (1 Bft) O-SO 119 0 min 12 W/m 14,7 C 15,3 C 6,4 km/h (2 Bft)
11.06.2019 08:09 15,3 C 96 % 1008,5 hPa 0,2 l/m 0,8 km/h (0 Bft) O-SO 119 0 min 11 W/m 14,7 C 15,3 C 3,2 km/h (1 Bft)
11.06.2019 08:12 15,3 C 96 % 1008,4 hPa 0,0 l/m 0,5 km/h (0 Bft) O-SO 119 0 min 11 W/m 14,7 C 15,3 C 1,6 km/h (1 Bft)
11.06.2019 08:15 15,3 C 96 % 1008,3 hPa 0,0 l/m 0,2 km/h (0 Bft) O-SO 119 0 min 11 W/m 14,7 C 15,3 C 1,6 km/h (1 Bft)
11.06.2019 08:18 15,3 C 96 % 1008,3 hPa 0,0 l/m 0,0 km/h (0 Bft) O-SO 119 0 min 12 W/m 14,7 C 15,3 C 0,0 km/h (0 Bft)
11.06.2019 08:21 15,2 C 96 % 1008,4 hPa 0,2 l/m 0,6 km/h (0 Bft) O-SO 119 0 min 12 W/m 14,6 C 15,2 C 3,2 km/h (1 Bft)
11.06.2019 08:24 15,3 C 96 % 1008,3 hPa 0,0 l/m 0,2 km/h (0 Bft) O-SO 119 0 min 18 W/m 14,7 C 15,3 C 1,6 km/h (1 Bft)
11.06.2019 08:27 15,3 C 96 % 1008,2 hPa 0,0 l/m 0,0 km/h (0 Bft) O-SO 119 0 min 25 W/m 14,7 C 15,3 C 0,0 km/h (0 Bft)
11.06.2019 08:30 15,3 C 96 % 1008,1 hPa 0,0 l/m 0,0 km/h (0 Bft) O-SO 119 0 min 28 W/m 14,7 C 15,3 C 0,0 km/h (0 Bft)
11.06.2019 08:33 15,3 C 96 % 1008,1 hPa 0,2 l/m 0,0 km/h (0 Bft) O-SO 119 0 min 39 W/m 14,7 C 15,3 C 0,0 km/h (0 Bft)
11.06.2019 08:36 15,3 C 96 % 1008,3 hPa 0,0 l/m 0,1 km/h (0 Bft) O-SO 119 0 min 30 W/m 14,7 C 15,3 C 1,6 km/h (1 Bft)
11.06.2019 08:39 15,3 C 96 % 1008,3 hPa 0,0 l/m 0,4 km/h (0 Bft) O-SO 119 0 min 30 W/m 14,7 C 15,3 C 3,2 km/h (1 Bft)
11.06.2019 08:42 15,4 C 96 % 1008,3 hPa 0,0 l/m 2,3 km/h (1 Bft) O-SO 119 0 min 28 W/m 14,8 C 15,4 C 4,8 km/h (1 Bft)
11.06.2019 08:45 15,4 C 96 % 1008,3 hPa 0,0 l/m 0,2 km/h (0 Bft) O-SO 119 0 min 28 W/m 14,8 C 15,4 C 3,2 km/h (1 Bft)
11.06.2019 08:48 15,4 C 96 % 1008,4 hPa 0,0 l/m 0,7 km/h (0 Bft) O-SO 119 0 min 30 W/m 14,8 C 15,4 C 3,2 km/h (1 Bft)
11.06.2019 08:51 15,4 C 96 % 1008,5 hPa 0,0 l/m 0,0 km/h (0 Bft) O-SO 119 0 min 32 W/m 14,8 C 15,4 C 1,6 km/h (1 Bft)
11.06.2019 08:54 15,4 C 96 % 1008,5 hPa 0,2 l/m 2,2 km/h (1 Bft) O-SO 119 0 min 47 W/m 14,8 C 15,4 C 6,4 km/h (2 Bft)
11.06.2019 08:57 15,4 C 96 % 1008,5 hPa 0,0 l/m 2,4 km/h (1 Bft) O-SO 119 0 min 35 W/m 14,8 C 15,4 C 6,4 km/h (2 Bft)
11.06.2019 09:00 15,4 C 96 % 1008,7 hPa 0,0 l/m 1,0 km/h (0 Bft) O-SO 119 0 min 25 W/m 14,8 C 15,4 C 3,2 km/h (1 Bft)
11.06.2019 09:03 15,4 C 96 % 1008,8 hPa 0,0 l/m 1,0 km/h (0 Bft) O-SO 119 0 min 19 W/m 14,8 C 15,4 C 4,8 km/h (1 Bft)
11.06.2019 09:06 15,4 C 96 % 1008,8 hPa 0,0 l/m 1,0 km/h (0 Bft) O-SO 119 0 min 12 W/m 14,8 C 15,4 C 4,8 km/h (1 Bft)
11.06.2019 09:09 15,4 C 96 % 1008,8 hPa 0,0 l/m 0,0 km/h (0 Bft) O-SO 119 0 min 11 W/m 14,8 C 15,4 C 1,6 km/h (1 Bft)
11.06.2019 09:12 15,4 C 96 % 1008,7 hPa 0,0 l/m 1,6 km/h (1 Bft) O-SO 119 0 min 11 W/m 14,8 C 15,4 C 6,4 km/h (2 Bft)
11.06.2019 09:15 15,4 C 96 % 1008,6 hPa 0,0 l/m 0,7 km/h (0 Bft) O-SO 119 0 min 12 W/m 14,8 C 15,4 C 1,6 km/h (1 Bft)
11.06.2019 09:18 15,4 C 96 % 1008,8 hPa 0,0 l/m 0,4 km/h (0 Bft) O-SO 119 0 min 9 W/m 14,8 C 15,4 C 3,2 km/h (1 Bft)
11.06.2019 09:21 15,4 C 96 % 1008,8 hPa 0,2 l/m 0,4 km/h (0 Bft) O-SO 119 0 min 14 W/m 14,8 C 15,4 C 1,6 km/h (1 Bft)
11.06.2019 09:24 15,4 C 96 % 1008,7 hPa 0,0 l/m 0,0 km/h (0 Bft) O-SO 119 0 min 23 W/m 14,8 C 15,4 C 1,6 km/h (1 Bft)
11.06.2019 09:27 15,4 C 96 % 1008,7 hPa 0,4 l/m 0,5 km/h (0 Bft) O-SO 119 0 min 25 W/m 14,8 C 15,4 C 3,2 km/h (1 Bft)
11.06.2019 09:30 15,3 C 96 % 1008,7 hPa 0,0 l/m 2,1 km/h (1 Bft) O-SO 119 0 min 30 W/m 14,7 C 15,3 C 6,4 km/h (2 Bft)
11.06.2019 09:33 15,3 C 96 % 1008,6 hPa 0,2 l/m 0,0 km/h (0 Bft) O-SO 119 0 min 32 W/m 14,7 C 15,3 C 0,0 km/h (0 Bft)
11.06.2019 09:36 15,3 C 96 % 1008,7 hPa 0,0 l/m 0,0 km/h (0 Bft) O-SO 119 0 min 21 W/m 14,7 C 15,3 C 0,0 km/h (0 Bft)
11.06.2019 09:39 15,3 C 96 % 1008,9 hPa 0,2 l/m 0,9 km/h (0 Bft) O-SO 119 0 min 14 W/m 14,7 C 15,3 C 3,2 km/h (1 Bft)
11.06.2019 09:42 15,3 C 96 % 1009,0 hPa 0,0 l/m 0,9 km/h (0 Bft) O-SO 119 0 min 14 W/m 14,7 C 15,3 C 3,2 km/h (1 Bft)
11.06.2019 09:45 15,3 C 96 % 1008,9 hPa 0,0 l/m 0,8 km/h (0 Bft) O-SO 119 0 min 12 W/m 14,7 C 15,3 C 4,8 km/h (1 Bft)
11.06.2019 09:48 15,3 C 96 % 1008,9 hPa 0,2 l/m 0,0 km/h (0 Bft) O-SO 119 0 min 11 W/m 14,7 C 15,3 C 0,0 km/h (0 Bft)
11.06.2019 09:51 15,3 C 96 % 1008,6 hPa 0,2 l/m 1,2 km/h (1 Bft) O-SO 119 0 min 16 W/m 14,7 C 15,3 C 3,2 km/h (1 Bft)
11.06.2019 09:54 15,3 C 96 % 1008,3 hPa 0,4 l/m 2,0 km/h (1 Bft) O-SO 119 0 min 25 W/m 14,7 C 15,3 C 4,8 km/h (1 Bft)
11.06.2019 09:57 15,3 C 96 % 1008,5 hPa 0,2 l/m 0,6 km/h (0 Bft) O-SO 119 0 min 16 W/m 14,7 C 15,3 C 3,2 km/h (1 Bft)
11.06.2019 10:00 15,3 C 96 % 1008,8 hPa 0,2 l/m 1,1 km/h (1 Bft) O-SO 119 0 min 23 W/m 14,7 C 15,3 C 4,8 km/h (1 Bft)
11.06.2019 10:03 15,3 C 96 % 1008,9 hPa 0,2 l/m 1,3 km/h (1 Bft) O-SO 119 0 min 42 W/m 14,7 C 15,3 C 3,2 km/h (1 Bft)
11.06.2019 10:06 15,3 C 96 % 1008,8 hPa 0,0 l/m 0,0 km/h (0 Bft) O-SO 119 0 min 58 W/m 14,7 C 15,3 C 0,0 km/h (0 Bft)
11.06.2019 10:09 15,4 C 96 % 1008,5 hPa 0,0 l/m 0,0 km/h (0 Bft) O-SO 119 0 min 76 W/m 14,8 C 15,4 C 0,0 km/h (0 Bft)
11.06.2019 10:12 15,4 C 96 % 1008,5 hPa 0,2 l/m 0,0 km/h (0 Bft) O-SO 119 0 min 62 W/m 14,8 C 15,4 C 0,0 km/h (0 Bft)
11.06.2019 10:15 15,4 C 96 % 1008,6 hPa 0,0 l/m 0,5 km/h (0 Bft) O-SO 119 0 min 63 W/m 14,8 C 15,4 C 4,8 km/h (1 Bft)
11.06.2019 10:18 15,5 C 96 % 1008,6 hPa 0,0 l/m 4,0 km/h (1 Bft) O-NO 74 0 min 83 W/m 14,9 C 15,5 C 8,0 km/h (2 Bft)
11.06.2019 10:21 15,4 C 96 % 1008,6 hPa 0,0 l/m 2,4 km/h (1 Bft) O-NO 73 0 min 69 W/m 14,8 C 15,4 C 4,8 km/h (1 Bft)
11.06.2019 10:24 15,6 C 96 % 1008,8 hPa 0,0 l/m 1,2 km/h (1 Bft) O-NO 73 0 min 60 W/m 15,0 C 15,6 C 3,2 km/h (1 Bft)
11.06.2019 10:27 15,5 C 96 % 1008,9 hPa 0,0 l/m 2,3 km/h (1 Bft) O-NO 74 0 min 40 W/m 14,9 C 15,5 C 6,4 km/h (2 Bft)
11.06.2019 10:30 15,5 C 96 % 1008,9 hPa 0,2 l/m 1,1 km/h (1 Bft) O-NO 74 0 min 56 W/m 14,9 C 15,5 C 6,4 km/h (2 Bft)
11.06.2019 10:33 15,4 C 96 % 1008,8 hPa 0,2 l/m 3,2 km/h (1 Bft) O-NO 74 0 min 65 W/m 14,8 C 15,4 C 8,0 km/h (2 Bft)
11.06.2019 10:36 15,5 C 96 % 1008,8 hPa 0,0 l/m 2,9 km/h (1 Bft) O-NO 73 0 min 83 W/m 14,9 C 15,5 C 6,4 km/h (2 Bft)
11.06.2019 10:39 15,6 C 97 % 1008,7 hPa 0,0 l/m 2,8 km/h (1 Bft) O-NO 72 0 min 109 W/m 15,1 C 15,6 C 4,8 km/h (1 Bft)
11.06.2019 10:42 15,6 C 97 % 1008,6 hPa 0,0 l/m 1,9 km/h (1 Bft) O-NO 72 0 min 121 W/m 15,1 C 15,6 C 4,8 km/h (1 Bft)
11.06.2019 10:45 15,6 C 97 % 1008,6 hPa 0,2 l/m 3,4 km/h (1 Bft) O-NO 67 0 min 160 W/m 15,1 C 15,6 C 8,0 km/h (2 Bft)
11.06.2019 10:48 15,8 C 97 % 1008,6 hPa 0,0 l/m 0,8 km/h (0 Bft) O-NO 67 0 min 190 W/m 15,3 C 15,8 C 3,2 km/h (1 Bft)
11.06.2019 10:51 15,9 C 97 % 1008,6 hPa 0,0 l/m 1,5 km/h (1 Bft) O-NO 67 0 min 200 W/m 15,4 C 15,9 C 4,8 km/h (1 Bft)
11.06.2019 10:54 15,9 C 97 % 1008,6 hPa 0,0 l/m 1,5 km/h (1 Bft) O-NO 67 0 min 171 W/m 15,4 C 15,9 C 4,8 km/h (1 Bft)
11.06.2019 10:57 15,8 C 97 % 1008,8 hPa 0,0 l/m 2,1 km/h (1 Bft) O-NO 67 0 min 153 W/m 15,3 C 15,8 C 6,4 km/h (2 Bft)
11.06.2019 11:00 15,9 C 96 % 1008,7 hPa 0,0 l/m 3,3 km/h (1 Bft) O-NO 70 0 min 156 W/m 15,3 C 15,9 C 6,4 km/h (2 Bft)
11.06.2019 11:03 15,9 C 97 % 1008,6 hPa 0,0 l/m 1,8 km/h (1 Bft) O-NO 70 0 min 185 W/m 15,4 C 15,9 C 6,4 km/h (2 Bft)
11.06.2019 11:06 16,0 C 97 % 1008,6 hPa 0,0 l/m 2,1 km/h (1 Bft) O-NO 71 0 min 130 W/m 15,5 C 16,0 C 4,8 km/h (1 Bft)
11.06.2019 11:09 15,9 C 97 % 1008,6 hPa 0,0 l/m 2,8 km/h (1 Bft) O-NO 72 0 min 142 W/m 15,4 C 15,9 C 4,8 km/h (1 Bft)
11.06.2019 11:12 16,0 C 97 % 1008,5 hPa 0,0 l/m 3,2 km/h (1 Bft) O-NO 72 0 min 185 W/m 15,5 C 16,0 C 3,2 km/h (1 Bft)
11.06.2019 11:15 16,0 C 97 % 1008,5 hPa 0,0 l/m 3,2 km/h (1 Bft) O-NO 72 0 min 174 W/m 15,5 C 16,0 C 3,2 km/h (1 Bft)
11.06.2019 11:18 16,0 C 97 % 1008,3 hPa 0,0 l/m 3,2 km/h (1 Bft) O-NO 72 0 min 163 W/m 15,5 C 16,0 C 3,2 km/h (1 Bft)
11.06.2019 11:21 16,1 C 97 % 1008,3 hPa 0,0 l/m 3,2 km/h (1 Bft) N 0 0 min 171 W/m 15,6 C 16,1 C 3,2 km/h (1 Bft)
11.06.2019 11:24 16,1 C 97 % 1008,4 hPa 0,0 l/m 3,2 km/h (1 Bft) N 0 0 min 250 W/m 15,6 C 16,1 C 3,2 km/h (1 Bft)
11.06.2019 11:27 16,3 C 97 % 1008,4 hPa 0,0 l/m 3,2 km/h (1 Bft) N 0 0 min 315 W/m 15,8 C 16,3 C 3,2 km/h (1 Bft)
11.06.2019 11:30 16,3 C 97 % 1008,4 hPa 0,0 l/m 3,2 km/h (1 Bft) N 0 0 min 188 W/m 15,8 C 16,3 C 3,2 km/h (1 Bft)
11.06.2019 11:33 16,3 C 97 % 1008,4 hPa 0,0 l/m 3,2 km/h (1 Bft) N 0 0 min 178 W/m 15,8 C 16,3 C 3,2 km/h (1 Bft)
11.06.2019 11:36 16,3 C 97 % 1008,4 hPa 0,0 l/m 3,6 km/h (1 Bft) O-NO 72 0 min 160 W/m 15,8 C 16,3 C 6,4 km/h (2 Bft)
11.06.2019 11:39 16,3 C 97 % 1008,3 hPa 0,0 l/m 0,2 km/h (0 Bft) O-NO 72 0 min 209 W/m 15,8 C 16,3 C 3,2 km/h (1 Bft)
11.06.2019 11:42 16,4 C 97 % 1008,4 hPa 0,0 l/m 0,1 km/h (0 Bft) O-NO 72 0 min 304 W/m 15,9 C 16,4 C 3,2 km/h (1 Bft)
11.06.2019 11:45 16,4 C 97 % 1008,3 hPa 0,0 l/m 1,4 km/h (1 Bft) O-NO 72 3 min 478 W/m 15,9 C 16,4 C 3,2 km/h (1 Bft)
11.06.2019 11:48 16,7 C 97 % 1008,3 hPa 0,0 l/m 1,2 km/h (1 Bft) O-NO 72 0 min 264 W/m 16,2 C 16,7 C 3,2 km/h (1 Bft)
11.06.2019 11:51 16,7 C 97 % 1008,4 hPa 0,0 l/m 2,2 km/h (1 Bft) O-NO 72 0 min 396 W/m 16,2 C 16,7 C 4,8 km/h (1 Bft)
11.06.2019 11:54 16,7 C 97 % 1008,4 hPa 0,0 l/m 2,3 km/h (1 Bft) O-NO 72 0 min 283 W/m 16,2 C 16,7 C 6,4 km/h (2 Bft)
11.06.2019 11:57 16,7 C 97 % 1008,2 hPa 0,0 l/m 0,6 km/h (0 Bft) O-NO 72 0 min 278 W/m 16,2 C 16,7 C 1,6 km/h (1 Bft)
11.06.2019 12:00 16,7 C 97 % 1008,2 hPa 0,0 l/m 0,1 km/h (0 Bft) O-NO 72 0 min 316 W/m 16,2 C 16,7 C 1,6 km/h (1 Bft)
11.06.2019 12:03 16,9 C 97 % 1008,3 hPa 0,0 l/m 0,5 km/h (0 Bft) O-NO 72 0 min 248 W/m 16,4 C 16,9 C 4,8 km/h (1 Bft)
11.06.2019 12:06 16,9 C 97 % 1008,4 hPa 0,0 l/m 2,5 km/h (1 Bft) O-NO 72 0 min 156 W/m 16,4 C 16,9 C 4,8 km/h (1 Bft)
11.06.2019 12:09 17,1 C 97 % 1008,5 hPa 0,0 l/m 2,0 km/h (1 Bft) O-NO 72 0 min 137 W/m 16,6 C 17,1 C 4,8 km/h (1 Bft)
11.06.2019 12:12 16,9 C 97 % 1008,5 hPa 0,0 l/m 1,8 km/h (1 Bft) O-NO 72 0 min 134 W/m 16,4 C 16,9 C 4,8 km/h (1 Bft)
11.06.2019 12:15 16,9 C 97 % 1008,5 hPa 0,0 l/m 2,0 km/h (1 Bft) O-NO 72 0 min 130 W/m 16,4 C 16,9 C 4,8 km/h (1 Bft)
11.06.2019 12:18 16,8 C 96 % 1008,5 hPa 0,0 l/m 1,5 km/h (1 Bft) O-NO 72 0 min 116 W/m 16,2 C 16,8 C 4,8 km/h (1 Bft)
11.06.2019 12:21 16,8 C 96 % 1008,5 hPa 0,0 l/m 1,7 km/h (1 Bft) O-NO 72 0 min 121 W/m 16,2 C 16,8 C 3,2 km/h (1 Bft)
11.06.2019 12:24 16,8 C 96 % 1008,5 hPa 0,0 l/m 1,6 km/h (1 Bft) O-NO 72 0 min 111 W/m 16,2 C 16,8 C 3,2 km/h (1 Bft)
11.06.2019 12:27 16,8 C 96 % 1008,5 hPa 0,0 l/m 1,0 km/h (0 Bft) O-NO 72 0 min 127 W/m 16,2 C 16,8 C 3,2 km/h (1 Bft)
11.06.2019 12:30 16,9 C 97 % 1008,5 hPa 0,0 l/m 0,8 km/h (0 Bft) O-NO 72 0 min 155 W/m 16,4 C 16,9 C 3,2 km/h (1 Bft)
11.06.2019 12:33 17,1 C 97 % 1008,6 hPa 0,0 l/m 1,4 km/h (1 Bft) O-NO 72 0 min 98 W/m 16,6 C 17,1 C 3,2 km/h (1 Bft)
11.06.2019 12:36 16,8 C 96 % 1008,8 hPa 0,0 l/m 1,8 km/h (1 Bft) O-NO 72 0 min 135 W/m 16,2 C 16,8 C 3,2 km/h (1 Bft)
11.06.2019 12:39 16,7 C 96 % 1008,8 hPa 0,0 l/m 1,7 km/h (1 Bft) O-NO 72 0 min 135 W/m 16,1 C 16,7 C 3,2 km/h (1 Bft)
11.06.2019 12:42 16,7 C 96 % 1008,8 hPa 0,0 l/m 1,4 km/h (1 Bft) O-NO 72 0 min 100 W/m 16,1 C 16,7 C 4,8 km/h (1 Bft)
11.06.2019 12:45 16,7 C 96 % 1008,8 hPa 0,0 l/m 1,4 km/h (1 Bft) O-NO 72 0 min 179 W/m 16,1 C 16,7 C 4,8 km/h (1 Bft)
11.06.2019 12:48 16,8 C 96 % 1008,7 hPa 0,0 l/m 1,4 km/h (1 Bft) O-NO 72 0 min 195 W/m 16,2 C 16,8 C 4,8 km/h (1 Bft)
11.06.2019 12:51 16,8 C 96 % 1008,7 hPa 0,0 l/m 0,3 km/h (0 Bft) O-NO 72 0 min 206 W/m 16,2 C 16,8 C 1,6 km/h (1 Bft)
11.06.2019 12:54 17,1 C 97 % 1008,7 hPa 0,0 l/m 0,1 km/h (0 Bft) O-NO 72 0 min 257 W/m 16,6 C 17,1 C 1,6 km/h (1 Bft)
11.06.2019 12:57 17,3 C 97 % 1008,6 hPa 0,0 l/m 0,0 km/h (0 Bft) O-NO 72 0 min 322 W/m 16,8 C 17,3 C 1,6 km/h (1 Bft)
11.06.2019 13:00 17,5 C 97 % 1008,6 hPa 0,0 l/m 2,2 km/h (1 Bft) O-NO 72 0 min 267 W/m 17,0 C 17,5 C 4,8 km/h (1 Bft)
11.06.2019 13:03 17,7 C 97 % 1008,6 hPa 0,0 l/m 5,8 km/h (2 Bft) SW 222 0 min 380 W/m 17,2 C 17,7 C 9,7 km/h (2 Bft)
11.06.2019 13:06 17,6 C 96 % 1008,6 hPa 0,0 l/m 6,1 km/h (2 Bft) SW 223 3 min 480 W/m 17,0 C 17,6 C 8,0 km/h (2 Bft)
11.06.2019 13:09 17,8 C 96 % 1008,6 hPa 0,0 l/m 5,9 km/h (2 Bft) SW 234 0 min 353 W/m 17,2 C 17,8 C 11,3 km/h (2 Bft)
11.06.2019 13:12 17,9 C 96 % 1008,6 hPa 0,0 l/m 6,2 km/h (2 Bft) SW 234 0 min 353 W/m 17,3 C 17,9 C 9,7 km/h (2 Bft)
11.06.2019 13:15 18,1 C 96 % 1008,6 hPa 0,0 l/m 4,7 km/h (1 Bft) SW 230 3 min 571 W/m 17,5 C 18,1 C 9,7 km/h (2 Bft)
11.06.2019 13:18 18,4 C 96 % 1008,6 hPa 0,0 l/m 4,1 km/h (1 Bft) SW 226 0 min 329 W/m 17,7 C 18,4 C 6,4 km/h (2 Bft)
11.06.2019 13:21 18,4 C 96 % 1008,7 hPa 0,0 l/m 5,5 km/h (2 Bft) SW 230 0 min 244 W/m 17,7 C 18,4 C 11,3 km/h (2 Bft)
11.06.2019 13:24 18,2 C 95 % 1008,7 hPa 0,0 l/m 6,3 km/h (2 Bft) SW 231 0 min 411 W/m 17,4 C 18,2 C 9,7 km/h (2 Bft)
11.06.2019 13:27 18,2 C 95 % 1008,7 hPa 0,0 l/m 5,0 km/h (1 Bft) SW 232 0 min 179 W/m 17,4 C 18,2 C 9,7 km/h (2 Bft)
11.06.2019 13:30 18,1 C 94 % 1008,9 hPa 0,0 l/m 6,8 km/h (2 Bft) SW 227 0 min 127 W/m 17,1 C 17,9 C 9,7 km/h (2 Bft)
11.06.2019 13:33 18,2 C 95 % 1008,9 hPa 0,0 l/m 5,4 km/h (2 Bft) SW 227 0 min 141 W/m 17,4 C 18,2 C 11,3 km/h (2 Bft)
11.06.2019 13:36 18,2 C 95 % 1008,9 hPa 0,0 l/m 6,3 km/h (2 Bft) SW 229 0 min 178 W/m 17,4 C 18,2 C 9,7 km/h (2 Bft)
11.06.2019 13:39 18,2 C 95 % 1008,9 hPa 0,0 l/m 4,3 km/h (1 Bft) SW 229 0 min 257 W/m 17,4 C 18,2 C 8,0 km/h (2 Bft)
11.06.2019 13:42 18,3 C 95 % 1008,9 hPa 0,0 l/m 3,7 km/h (1 Bft) SW 229 0 min 257 W/m 17,5 C 18,3 C 6,4 km/h (2 Bft)
11.06.2019 13:45 18,4 C 94 % 1009,0 hPa 0,0 l/m 1,8 km/h (1 Bft) SW 229 0 min 239 W/m 17,4 C 18,4 C 3,2 km/h (1 Bft)
11.06.2019 13:48 18,7 C 95 % 1009,0 hPa 0,0 l/m 3,3 km/h (1 Bft) SW 229 0 min 202 W/m 17,9 C 18,7 C 6,4 km/h (2 Bft)
11.06.2019 13:51 18,7 C 94 % 1009,1 hPa 0,0 l/m 2,8 km/h (1 Bft) SW 229 0 min 332 W/m 17,7 C 18,7 C 6,4 km/h (2 Bft)
11.06.2019 13:54 18,7 C 94 % 1009,1 hPa 0,0 l/m 4,2 km/h (1 Bft) SW 229 0 min 267 W/m 17,7 C 18,7 C 8,0 km/h (2 Bft)
11.06.2019 13:57 18,8 C 94 % 1009,1 hPa 0,0 l/m 5,2 km/h (1 Bft) SW 229 0 min 274 W/m 17,8 C 18,8 C 8,0 km/h (2 Bft)
11.06.2019 14:00 18,8 C 94 % 1009,1 hPa 0,0 l/m 5,1 km/h (1 Bft) SW 229 0 min 223 W/m 17,8 C 18,8 C 8,0 km/h (2 Bft)
11.06.2019 14:03 18,8 C 93 % 1009,1 hPa 0,0 l/m 6,5 km/h (2 Bft) SW 229 0 min 192 W/m 17,6 C 18,8 C 11,3 km/h (2 Bft)
11.06.2019 14:06 18,7 C 93 % 1009,1 hPa 0,0 l/m 6,5 km/h (2 Bft) SW 227 0 min 93 W/m 17,5 C 18,7 C 9,7 km/h (2 Bft)
11.06.2019 14:09 18,6 C 93 % 1009,1 hPa 0,0 l/m 6,1 km/h (2 Bft) SW 227 0 min 39 W/m 17,4 C 18,6 C 11,3 km/h (2 Bft)
11.06.2019 14:12 18,6 C 93 % 1009,1 hPa 0,2 l/m 6,6 km/h (2 Bft) SW 227 0 min 26 W/m 17,4 C 18,5 C 11,3 km/h (2 Bft)
11.06.2019 14:15 18,6 C 93 % 1009,2 hPa 1,0 l/m 9,5 km/h (2 Bft) SW 227 0 min 32 W/m 17,4 C 17,3 C 17,7 km/h (3 Bft)
11.06.2019 14:18 18,4 C 93 % 1009,2 hPa 0,6 l/m 8,6 km/h (2 Bft) SW 217 0 min 111 W/m 17,2 C 17,4 C 12,9 km/h (3 Bft)
11.06.2019 14:21 18,3 C 93 % 1009,2 hPa 0,0 l/m 8,6 km/h (2 Bft) S 190 0 min 153 W/m 17,1 C 17,3 C 11,3 km/h (2 Bft)
11.06.2019 14:24 18,3 C 94 % 1009,2 hPa 0,0 l/m 7,0 km/h (2 Bft) SW 226 0 min 186 W/m 17,3 C 18,0 C 9,7 km/h (2 Bft)
11.06.2019 14:27 18,4 C 94 % 1009,3 hPa 0,0 l/m 5,9 km/h (2 Bft) SW 217 0 min 130 W/m 17,4 C 18,4 C 8,0 km/h (2 Bft)
11.06.2019 14:30 18,3 C 94 % 1009,2 hPa 0,0 l/m 9,2 km/h (2 Bft) SW 220 0 min 204 W/m 17,3 C 17,1 C 14,5 km/h (3 Bft)
11.06.2019 14:33 18,3 C 94 % 1009,2 hPa 0,0 l/m 10,7 km/h (2 Bft) SW 218 0 min 209 W/m 17,3 C 16,5 C 16,1 km/h (3 Bft)
11.06.2019 14:36 18,3 C 95 % 1009,2 hPa 0,0 l/m 10,1 km/h (2 Bft) SW 214 0 min 316 W/m 17,5 C 16,7 C 16,1 km/h (3 Bft)
11.06.2019 14:39 18,4 C 95 % 1009,2 hPa 0,0 l/m 10,3 km/h (2 Bft) S-SW 212 0 min 355 W/m 17,6 C 16,8 C 19,3 km/h (3 Bft)
11.06.2019 14:42 18,9 C 95 % 1009,2 hPa 0,0 l/m 9,5 km/h (2 Bft) S-SW 197 3 min 856 W/m 18,1 C 17,6 C 16,1 km/h (3 Bft)
11.06.2019 14:45 19,1 C 95 % 1009,2 hPa 0,0 l/m 11,4 km/h (2 Bft) S-SW 211 3 min 856 W/m 18,3 C 17,2 C 20,9 km/h (4 Bft)
11.06.2019 14:48 19,1 C 94 % 1009,2 hPa 0,0 l/m 11,9 km/h (2 Bft) SW 217 3 min 856 W/m 18,1 C 17,0 C 19,3 km/h (3 Bft)
11.06.2019 14:51 18,9 C 93 % 1009,2 hPa 0,0 l/m 10,8 km/h (2 Bft) SW 224 0 min 269 W/m 17,7 C 17,1 C 17,7 km/h (3 Bft)
11.06.2019 14:54 18,9 C 93 % 1009,3 hPa 0,0 l/m 10,6 km/h (2 Bft) W-SW 243 0 min 251 W/m 17,7 C 17,2 C 17,7 km/h (3 Bft)
11.06.2019 14:57 18,8 C 93 % 1009,3 hPa 0,0 l/m 8,8 km/h (2 Bft) S-SW 209 0 min 299 W/m 17,6 C 17,8 C 16,1 km/h (3 Bft)
11.06.2019 15:00 18,7 C 92 % 1009,3 hPa 0,0 l/m 10,8 km/h (2 Bft) SW 217 0 min 200 W/m 17,4 C 16,9 C 19,3 km/h (3 Bft)
11.06.2019 15:03 18,6 C 92 % 1009,4 hPa 0,0 l/m 13,0 km/h (3 Bft) S 190 0 min 230 W/m 17,3 C 16,1 C 22,5 km/h (4 Bft)
11.06.2019 15:06 18,6 C 92 % 1009,4 hPa 0,0 l/m 10,4 km/h (2 Bft) S-SW 205 0 min 364 W/m 17,3 C 17,0 C 17,7 km/h (3 Bft)
11.06.2019 15:09 18,6 C 92 % 1009,4 hPa 0,0 l/m 9,7 km/h (2 Bft) SW 227 0 min 373 W/m 17,3 C 17,2 C 16,1 km/h (3 Bft)
11.06.2019 15:12 18,8 C 93 % 1009,4 hPa 0,0 l/m 7,6 km/h (2 Bft) SW 214 0 min 236 W/m 17,6 C 18,3 C 14,5 km/h (3 Bft)
11.06.2019 15:15 18,9 C 92 % 1009,5 hPa 0,0 l/m 10,5 km/h (2 Bft) SW 236 0 min 207 W/m 17,6 C 17,3 C 17,7 km/h (3 Bft)
11.06.2019 15:18 18,8 C 91 % 1009,5 hPa 0,0 l/m 9,4 km/h (2 Bft) SW 222 0 min 272 W/m 17,3 C 17,5 C 14,5 km/h (3 Bft)
11.06.2019 15:21 18,8 C 91 % 1009,5 hPa 0,0 l/m 13,5 km/h (3 Bft) SW 217 0 min 313 W/m 17,3 C 16,2 C 22,5 km/h (4 Bft)
11.06.2019 15:24 18,8 C 91 % 1009,5 hPa 0,0 l/m 14,0 km/h (3 Bft) SW 227 0 min 313 W/m 17,3 C 16,1 C 22,5 km/h (4 Bft)
11.06.2019 15:27 18,8 C 90 % 1009,5 hPa 0,0 l/m 14,2 km/h (3 Bft) SW 228 0 min 285 W/m 17,1 C 16,0 C 20,9 km/h (4 Bft)
11.06.2019 15:30 18,8 C 90 % 1009,6 hPa 0,0 l/m 11,1 km/h (2 Bft) SW 223 3 min 884 W/m 17,1 C 16,9 C 19,3 km/h (3 Bft)
11.06.2019 15:33 18,8 C 89 % 1009,6 hPa 0,0 l/m 15,0 km/h (3 Bft) S-SW 210 3 min 884 W/m 16,9 C 15,8 C 24,1 km/h (4 Bft)
11.06.2019 15:36 18,9 C 89 % 1009,6 hPa 0,0 l/m 14,2 km/h (3 Bft) SW 221 3 min 865 W/m 17,0 C 16,1 C 27,4 km/h (5 Bft)
11.06.2019 15:39 19,2 C 89 % 1009,6 hPa 0,0 l/m 13,3 km/h (3 Bft) S-SW 212 3 min 875 W/m 17,3 C 16,7 C 19,3 km/h (3 Bft)
11.06.2019 15:42 19,6 C 87 % 1009,6 hPa 0,0 l/m 12,9 km/h (3 Bft) SW 232 3 min 877 W/m 17,4 C 17,3 C 19,3 km/h (3 Bft)
11.06.2019 15:45 19,7 C 87 % 1009,6 hPa 0,0 l/m 11,1 km/h (2 Bft) W-SW 244 3 min 877 W/m 17,5 C 18,0 C 20,9 km/h (4 Bft)
11.06.2019 15:48 19,7 C 85 % 1009,7 hPa 0,0 l/m 12,6 km/h (3 Bft) S-SW 208 0 min 343 W/m 17,1 C 17,5 C 22,5 km/h (4 Bft)
11.06.2019 15:51 19,7 C 85 % 1009,8 hPa 0,0 l/m 13,0 km/h (3 Bft) W-SW 242 0 min 255 W/m 17,1 C 17,4 C 20,9 km/h (4 Bft)
11.06.2019 15:54 19,5 C 85 % 1009,7 hPa 0,0 l/m 12,0 km/h (2 Bft) SW 218 0 min 236 W/m 16,9 C 17,5 C 20,9 km/h (4 Bft)
11.06.2019 15:57 19,3 C 85 % 1009,7 hPa 0,0 l/m 12,5 km/h (2 Bft) SW 233 0 min 350 W/m 16,7 C 17,1 C 17,7 km/h (3 Bft)
11.06.2019 16:00 19,2 C 85 % 1009,7 hPa 0,0 l/m 13,2 km/h (3 Bft) SW 223 0 min 227 W/m 16,6 C 16,8 C 22,5 km/h (4 Bft)
11.06.2019 16:03 19,2 C 85 % 1009,7 hPa 0,0 l/m 13,2 km/h (3 Bft) W-SW 241 0 min 162 W/m 16,6 C 16,8 C 19,3 km/h (3 Bft)
11.06.2019 16:06 19,3 C 85 % 1009,7 hPa 0,0 l/m 14,4 km/h (3 Bft) W-SW 238 0 min 243 W/m 16,7 C 16,6 C 22,5 km/h (4 Bft)
11.06.2019 16:09 19,3 C 85 % 1009,7 hPa 0,0 l/m 11,3 km/h (2 Bft) W-SW 238 0 min 243 W/m 16,7 C 17,4 C 17,7 km/h (3 Bft)
11.06.2019 16:12 19,5 C 84 % 1009,8 hPa 0,0 l/m 16,7 km/h (3 Bft) W-SW 246 3 min 779 W/m 16,7 C 16,2 C 27,4 km/h (5 Bft)
11.06.2019 16:15 19,8 C 82 % 1009,9 hPa 0,0 l/m 17,5 km/h (3 Bft) SW 227 3 min 733 W/m 16,6 C 16,4 C 24,1 km/h (4 Bft)
11.06.2019 16:18 19,8 C 82 % 1009,8 hPa 0,0 l/m 13,6 km/h (3 Bft) SW 223 3 min 722 W/m 16,6 C 17,4 C 20,9 km/h (4 Bft)
11.06.2019 16:21 19,9 C 82 % 1009,9 hPa 0,0 l/m 13,0 km/h (3 Bft) S-SO 168 3 min 656 W/m 16,7 C 17,6 C 19,3 km/h (3 Bft)
11.06.2019 16:24 20,1 C 82 % 1009,9 hPa 0,0 l/m 13,2 km/h (3 Bft) SW 234 3 min 782 W/m 16,9 C 17,8 C 20,9 km/h (4 Bft)
11.06.2019 16:27 20,1 C 79 % 1009,9 hPa 0,0 l/m 14,8 km/h (3 Bft) W-SW 243 3 min 782 W/m 16,3 C 17,4 C 19,3 km/h (3 Bft)
11.06.2019 16:30 20,0 C 81 % 1009,9 hPa 0,0 l/m 12,9 km/h (3 Bft) SW 218 3 min 682 W/m 16,6 C 17,8 C 27,4 km/h (5 Bft)
11.06.2019 16:33 20,1 C 80 % 1009,9 hPa 0,0 l/m 14,8 km/h (3 Bft) SW 228 3 min 761 W/m 16,5 C 17,4 C 22,5 km/h (4 Bft)
11.06.2019 16:36 20,3 C 80 % 1009,9 hPa 0,0 l/m 13,2 km/h (3 Bft) W-SW 242 3 min 745 W/m 16,7 C 18,1 C 24,1 km/h (4 Bft)
11.06.2019 16:39 20,4 C 79 % 1010,0 hPa 0,0 l/m 14,2 km/h (3 Bft) W 267 3 min 721 W/m 16,6 C 17,9 C 22,5 km/h (4 Bft)
11.06.2019 16:42 20,4 C 78 % 1010,0 hPa 0,0 l/m 10,0 km/h (2 Bft) SW 234 3 min 728 W/m 16,4 C 19,1 C 17,7 km/h (3 Bft)
11.06.2019 16:45 20,4 C 76 % 1010,0 hPa 0,0 l/m 13,7 km/h (3 Bft) SW 235 3 min 640 W/m 16,0 C 18,0 C 20,9 km/h (4 Bft)
11.06.2019 16:48 20,3 C 78 % 1010,1 hPa 0,0 l/m 11,4 km/h (2 Bft) SW 232 3 min 640 W/m 16,3 C 18,5 C 22,5 km/h (4 Bft)
11.06.2019 16:51 20,2 C 76 % 1010,0 hPa 0,0 l/m 10,9 km/h (2 Bft) SW 231 0 min 218 W/m 15,8 C 18,6 C 14,5 km/h (3 Bft)
11.06.2019 16:54 20,2 C 78 % 1010,0 hPa 0,0 l/m 13,6 km/h (3 Bft) SW 220 3 min 635 W/m 16,2 C 17,8 C 22,5 km/h (4 Bft)
11.06.2019 16:57 20,3 C 78 % 1010,1 hPa 0,0 l/m 15,2 km/h (3 Bft) W-SW 242 3 min 640 W/m 16,3 C 17,6 C 22,5 km/h (4 Bft)
11.06.2019 17:00 20,3 C 78 % 1010,2 hPa 0,0 l/m 16,6 km/h (3 Bft) W-SW 246 3 min 689 W/m 16,3 C 17,3 C 24,1 km/h (4 Bft)
11.06.2019 17:03 20,2 C 78 % 1010,1 hPa 0,0 l/m 16,7 km/h (3 Bft) W 264 0 min 325 W/m 16,2 C 17,1 C 22,5 km/h (4 Bft)
11.06.2019 17:06 20,1 C 80 % 1010,1 hPa 0,0 l/m 10,5 km/h (2 Bft) W 276 0 min 251 W/m 16,5 C 18,6 C 17,7 km/h (3 Bft)
11.06.2019 17:09 20,1 C 81 % 1010,1 hPa 0,0 l/m 15,0 km/h (3 Bft) SW 236 3 min 642 W/m 16,7 C 17,4 C 29,0 km/h (5 Bft)
11.06.2019 17:12 20,3 C 79 % 1010,2 hPa 0,0 l/m 13,4 km/h (3 Bft) W-NW 286 3 min 545 W/m 16,5 C 18,0 C 22,5 km/h (4 Bft)
11.06.2019 17:15 20,3 C 78 % 1010,1 hPa 0,0 l/m 12,3 km/h (2 Bft) W 264 3 min 527 W/m 16,3 C 18,3 C 25,7 km/h (4 Bft)
11.06.2019 17:18 20,3 C 79 % 1010,1 hPa 0,0 l/m 10,2 km/h (2 Bft) SW 226 3 min 533 W/m 16,5 C 18,9 C 17,7 km/h (3 Bft)
11.06.2019 17:21 20,3 C 78 % 1010,1 hPa 0,0 l/m 13,1 km/h (3 Bft) SW 234 3 min 520 W/m 16,3 C 18,1 C 25,7 km/h (4 Bft)
11.06.2019 17:24 20,3 C 78 % 1010,2 hPa 0,0 l/m 13,0 km/h (3 Bft) W-SW 237 3 min 524 W/m 16,3 C 18,1 C 24,1 km/h (4 Bft)
11.06.2019 17:27 20,2 C 77 % 1010,1 hPa 0,0 l/m 12,0 km/h (2 Bft) W-SW 245 3 min 508 W/m 16,0 C 18,3 C 20,9 km/h (4 Bft)
11.06.2019 17:30 20,2 C 78 % 1010,1 hPa 0,0 l/m 12,9 km/h (3 Bft) W-NW 284 3 min 503 W/m 16,2 C 18,0 C 22,5 km/h (4 Bft)
11.06.2019 17:33 20,3 C 77 % 1010,1 hPa 0,0 l/m 12,0 km/h (2 Bft) W-SW 254 3 min 489 W/m 16,1 C 18,4 C 20,9 km/h (4 Bft)
11.06.2019 17:36 20,3 C 76 % 1010,1 hPa 0,0 l/m 12,4 km/h (2 Bft) W-SW 246 3 min 485 W/m 15,9 C 18,3 C 17,7 km/h (3 Bft)
11.06.2019 17:39 20,2 C 76 % 1010,0 hPa 0,0 l/m 12,0 km/h (2 Bft) W-NW 283 3 min 480 W/m 15,8 C 18,3 C 19,3 km/h (3 Bft)
11.06.2019 17:42 20,2 C 76 % 1010,0 hPa 0,0 l/m 13,1 km/h (3 Bft) SW 236 3 min 473 W/m 15,8 C 18,0 C 22,5 km/h (4 Bft)
11.06.2019 17:45 19,9 C 76 % 1010,0 hPa 0,0 l/m 14,5 km/h (3 Bft) S-SW 198 3 min 466 W/m 15,5 C 17,3 C 20,9 km/h (4 Bft)
11.06.2019 17:48 19,8 C 78 % 1010,0 hPa 0,0 l/m 10,8 km/h (2 Bft) W 259 3 min 462 W/m 15,8 C 18,2 C 20,9 km/h (4 Bft)
11.06.2019 17:51 20,0 C 77 % 1010,0 hPa 0,0 l/m 11,8 km/h (2 Bft) SW 214 3 min 452 W/m 15,8 C 18,1 C 19,3 km/h (3 Bft)
11.06.2019 17:54 20,0 C 78 % 1009,9 hPa 0,0 l/m 9,4 km/h (2 Bft) SW 235 3 min 443 W/m 16,0 C 18,8 C 14,5 km/h (3 Bft)
11.06.2019 17:57 20,1 C 77 % 1009,9 hPa 0,0 l/m 9,7 km/h (2 Bft) W 275 3 min 436 W/m 15,9 C 18,8 C 14,5 km/h (3 Bft)
11.06.2019 18:00 20,1 C 77 % 1009,9 hPa 0,0 l/m 12,4 km/h (2 Bft) W-SW 246 3 min 431 W/m 15,9 C 18,0 C 20,9 km/h (4 Bft)
11.06.2019 18:03 20,1 C 76 % 1009,9 hPa 0,0 l/m 10,8 km/h (2 Bft) SW 227 3 min 429 W/m 15,7 C 18,5 C 17,7 km/h (3 Bft)
11.06.2019 18:06 19,9 C 76 % 1009,9 hPa 0,0 l/m 13,5 km/h (3 Bft) SW 217 3 min 420 W/m 15,5 C 17,5 C 24,1 km/h (4 Bft)
11.06.2019 18:09 19,8 C 76 % 1009,9 hPa 0,0 l/m 10,8 km/h (2 Bft) W-SW 242 3 min 415 W/m 15,4 C 18,2 C 17,7 km/h (3 Bft)
11.06.2019 18:12 19,7 C 77 % 1010,0 hPa 0,0 l/m 11,1 km/h (2 Bft) SW 221 3 min 406 W/m 15,5 C 18,0 C 17,7 km/h (3 Bft)
11.06.2019 18:15 19,6 C 77 % 1009,9 hPa 0,0 l/m 9,9 km/h (2 Bft) SW 233 3 min 403 W/m 15,5 C 18,2 C 17,7 km/h (3 Bft)
11.06.2019 18:18 19,7 C 78 % 1009,9 hPa 0,0 l/m 10,0 km/h (2 Bft) SW 215 3 min 397 W/m 15,8 C 18,3 C 17,7 km/h (3 Bft)
11.06.2019 18:21 19,7 C 77 % 1010,0 hPa 0,0 l/m 11,9 km/h (2 Bft) SW 222 3 min 390 W/m 15,5 C 17,7 C 22,5 km/h (4 Bft)
11.06.2019 18:24 19,6 C 78 % 1010,1 hPa 0,0 l/m 7,9 km/h (2 Bft) W-NW 285 3 min 376 W/m 15,7 C 19,0 C 17,7 km/h (3 Bft)
11.06.2019 18:27 19,7 C 77 % 1010,1 hPa 0,0 l/m 11,3 km/h (2 Bft) W-SW 251 3 min 373 W/m 15,5 C 17,9 C 17,7 km/h (3 Bft)
11.06.2019 18:30 19,7 C 78 % 1010,1 hPa 0,0 l/m 7,2 km/h (2 Bft) W-SW 246 3 min 366 W/m 15,8 C 19,4 C 12,9 km/h (3 Bft)
11.06.2019 18:33 19,7 C 78 % 1010,1 hPa 0,0 l/m 11,1 km/h (2 Bft) W 271 3 min 360 W/m 15,8 C 18,0 C 19,3 km/h (3 Bft)
11.06.2019 18:36 19,8 C 78 % 1010,1 hPa 0,0 l/m 8,5 km/h (2 Bft) W 278 3 min 287 W/m 15,8 C 18,9 C 19,3 km/h (3 Bft)
11.06.2019 18:39 19,7 C 76 % 1010,1 hPa 0,0 l/m 9,8 km/h (2 Bft) W-SW 250 0 min 67 W/m 15,3 C 18,4 C 16,1 km/h (3 Bft)
11.06.2019 18:42 19,6 C 76 % 1010,1 hPa 0,0 l/m 11,4 km/h (2 Bft) W 263 0 min 63 W/m 15,2 C 17,7 C 16,1 km/h (3 Bft)
11.06.2019 18:45 19,6 C 76 % 1010,2 hPa 0,0 l/m 9,3 km/h (2 Bft) W-SW 244 0 min 62 W/m 15,2 C 18,4 C 16,1 km/h (3 Bft)
11.06.2019 18:48 19,6 C 76 % 1010,2 hPa 0,0 l/m 11,2 km/h (2 Bft) W-SW 248 0 min 60 W/m 15,2 C 17,8 C 17,7 km/h (3 Bft)
11.06.2019 18:51 19,6 C 76 % 1010,2 hPa 0,0 l/m 8,5 km/h (2 Bft) W 267 0 min 109 W/m 15,2 C 18,7 C 14,5 km/h (3 Bft)
11.06.2019 18:54 19,6 C 76 % 1010,2 hPa 0,0 l/m 8,1 km/h (2 Bft) W-SW 237 0 min 56 W/m 15,2 C 18,9 C 16,1 km/h (3 Bft)
11.06.2019 18:57 19,6 C 76 % 1010,2 hPa 0,0 l/m 9,8 km/h (2 Bft) W-SW 253 0 min 56 W/m 15,2 C 18,3 C 14,5 km/h (3 Bft)
11.06.2019 19:00 19,5 C 76 % 1010,1 hPa 0,0 l/m 9,1 km/h (2 Bft) SW 231 0 min 53 W/m 15,2 C 18,4 C 14,5 km/h (3 Bft)
11.06.2019 19:03 19,4 C 77 % 1010,2 hPa 0,0 l/m 8,0 km/h (2 Bft) SW 224 0 min 54 W/m 15,3 C 18,7 C 14,5 km/h (3 Bft)
11.06.2019 19:06 19,4 C 78 % 1010,2 hPa 0,0 l/m 7,0 km/h (2 Bft) W 279 0 min 84 W/m 15,5 C 19,1 C 12,9 km/h (3 Bft)
11.06.2019 19:09 19,5 C 78 % 1010,2 hPa 0,0 l/m 7,2 km/h (2 Bft) SW 233 0 min 53 W/m 15,6 C 19,2 C 14,5 km/h (3 Bft)
11.06.2019 19:12 19,4 C 77 % 1010,3 hPa 0,0 l/m 7,4 km/h (2 Bft) SW 218 0 min 60 W/m 15,3 C 19,0 C 12,9 km/h (3 Bft)
11.06.2019 19:15 19,4 C 78 % 1010,4 hPa 0,0 l/m 5,7 km/h (2 Bft) W 277 0 min 53 W/m 15,5 C 19,4 C 12,9 km/h (3 Bft)
11.06.2019 19:18 19,3 C 77 % 1010,4 hPa 0,0 l/m 6,8 km/h (2 Bft) SW 228 0 min 49 W/m 15,2 C 19,1 C 16,1 km/h (3 Bft)
11.06.2019 19:21 19,3 C 78 % 1010,3 hPa 0,0 l/m 6,4 km/h (2 Bft) SW 229 0 min 49 W/m 15,4 C 19,3 C 9,7 km/h (2 Bft)
11.06.2019 19:24 19,2 C 77 % 1010,4 hPa 0,0 l/m 8,1 km/h (2 Bft) W 273 0 min 47 W/m 15,1 C 18,5 C 16,1 km/h (3 Bft)
11.06.2019 19:27 19,2 C 77 % 1010,4 hPa 0,0 l/m 5,3 km/h (1 Bft) W-SW 256 0 min 49 W/m 15,1 C 19,2 C 11,3 km/h (2 Bft)
11.06.2019 19:30 19,2 C 77 % 1010,4 hPa 0,0 l/m 5,8 km/h (2 Bft) W-SW 250 0 min 49 W/m 15,1 C 19,2 C 12,9 km/h (3 Bft)
11.06.2019 19:33 19,2 C 77 % 1010,5 hPa 0,0 l/m 9,3 km/h (2 Bft) W 267 0 min 49 W/m 15,1 C 18,0 C 14,5 km/h (3 Bft)
11.06.2019 19:36 19,1 C 78 % 1010,5 hPa 0,0 l/m 7,3 km/h (2 Bft) W 269 0 min 47 W/m 15,2 C 18,7 C 12,9 km/h (3 Bft)
11.06.2019 19:39 19,1 C 79 % 1010,5 hPa 0,0 l/m 5,4 km/h (2 Bft) W 269 0 min 49 W/m 15,4 C 19,1 C 9,7 km/h (2 Bft)
11.06.2019 19:42 19,1 C 80 % 1010,6 hPa 0,0 l/m 5,6 km/h (2 Bft) W 269 0 min 49 W/m 15,6 C 19,1 C 11,3 km/h (2 Bft)
11.06.2019 19:45 19,1 C 80 % 1010,6 hPa 0,0 l/m 7,1 km/h (2 Bft) S-SW 209 0 min 49 W/m 15,6 C 18,8 C 12,9 km/h (3 Bft)
11.06.2019 19:48 19,1 C 80 % 1010,7 hPa 0,0 l/m 4,7 km/h (1 Bft) S-SW 211 0 min 49 W/m 15,6 C 19,1 C 9,7 km/h (2 Bft)
11.06.2019 19:51 19,0 C 81 % 1010,7 hPa 0,0 l/m 6,5 km/h (2 Bft) W 273 0 min 51 W/m 15,7 C 19,0 C 12,9 km/h (3 Bft)
11.06.2019 19:54 18,8 C 81 % 1010,8 hPa 0,0 l/m 4,5 km/h (1 Bft) W 279 0 min 51 W/m 15,5 C 18,8 C 11,3 km/h (2 Bft)
11.06.2019 19:57 18,7 C 81 % 1010,8 hPa 0,0 l/m 5,5 km/h (2 Bft) W 279 0 min 53 W/m 15,4 C 18,7 C 11,3 km/h (2 Bft)
11.06.2019 20:00 18,6 C 82 % 1010,8 hPa 0,0 l/m 6,7 km/h (2 Bft) NW 322 0 min 56 W/m 15,5 C 18,5 C 12,9 km/h (3 Bft)
11.06.2019 20:03 18,4 C 83 % 1010,7 hPa 0,0 l/m 5,3 km/h (1 Bft) NW 323 0 min 51 W/m 15,5 C 18,4 C 14,5 km/h (3 Bft)
11.06.2019 20:06 18,3 C 84 % 1010,8 hPa 0,0 l/m 7,9 km/h (2 Bft) N-NW 329 0 min 46 W/m 15,5 C 17,6 C 16,1 km/h (3 Bft)
11.06.2019 20:09 18,3 C 84 % 1010,9 hPa 0,0 l/m 6,5 km/h (2 Bft) N-NW 338 0 min 30 W/m 15,5 C 18,3 C 12,9 km/h (3 Bft)
11.06.2019 20:12 18,1 C 84 % 1010,9 hPa 0,0 l/m 5,4 km/h (2 Bft) N-NW 339 0 min 30 W/m 15,4 C 18,1 C 9,7 km/h (2 Bft)
11.06.2019 20:15 17,9 C 84 % 1010,9 hPa 0,0 l/m 5,9 km/h (2 Bft) N-NW 347 0 min 32 W/m 15,2 C 17,9 C 12,9 km/h (3 Bft)
11.06.2019 20:18 17,8 C 85 % 1011,0 hPa 0,0 l/m 5,0 km/h (1 Bft) NW 304 0 min 39 W/m 15,2 C 17,8 C 12,9 km/h (3 Bft)
11.06.2019 20:21 17,6 C 85 % 1011,0 hPa 0,0 l/m 5,4 km/h (2 Bft) NW 309 0 min 32 W/m 15,0 C 17,6 C 11,3 km/h (2 Bft)
11.06.2019 20:24 17,6 C 86 % 1011,0 hPa 0,0 l/m 5,5 km/h (2 Bft) NW 324 0 min 21 W/m 15,2 C 17,6 C 9,7 km/h (2 Bft)
11.06.2019 20:27 17,4 C 86 % 1011,0 hPa 0,0 l/m 3,7 km/h (1 Bft) NW 325 0 min 21 W/m 15,0 C 17,4 C 8,0 km/h (2 Bft)
11.06.2019 20:30 17,3 C 87 % 1011,1 hPa 0,0 l/m 1,8 km/h (1 Bft) NW 325 0 min 28 W/m 15,1 C 17,3 C 6,4 km/h (2 Bft)
11.06.2019 20:33 17,2 C 88 % 1011,1 hPa 0,0 l/m 4,3 km/h (1 Bft) N-NW 333 0 min 28 W/m 15,2 C 17,2 C 8,0 km/h (2 Bft)
11.06.2019 20:36 17,1 C 88 % 1011,1 hPa 0,0 l/m 3,9 km/h (1 Bft) N-NW 333 0 min 28 W/m 15,1 C 17,1 C 6,4 km/h (2 Bft)
11.06.2019 20:39 17,1 C 88 % 1011,1 hPa 0,0 l/m 4,0 km/h (1 Bft) N-NW 332 0 min 28 W/m 15,1 C 17,1 C 8,0 km/h (2 Bft)
11.06.2019 20:42 16,9 C 88 % 1011,2 hPa 0,0 l/m 4,8 km/h (1 Bft) N-NW 329 0 min 35 W/m 14,9 C 16,9 C 8,0 km/h (2 Bft)
11.06.2019 20:45 16,9 C 88 % 1011,3 hPa 0,0 l/m 2,6 km/h (1 Bft) N-NW 329 0 min 37 W/m 14,9 C 16,9 C 8,0 km/h (2 Bft)
11.06.2019 20:48 16,9 C 89 % 1011,4 hPa 0,0 l/m 0,7 km/h (0 Bft) N-NW 329 0 min 35 W/m 15,1 C 16,9 C 3,2 km/h (1 Bft)
11.06.2019 20:51 16,8 C 89 % 1011,4 hPa 0,0 l/m 3,2 km/h (1 Bft) N-NW 329 0 min 35 W/m 15,0 C 16,8 C 8,0 km/h (2 Bft)
11.06.2019 20:54 16,8 C 89 % 1011,3 hPa 0,0 l/m 1,9 km/h (1 Bft) N-NW 329 0 min 35 W/m 15,0 C 16,8 C 4,8 km/h (1 Bft)
11.06.2019 20:57 16,8 C 88 % 1011,4 hPa 0,0 l/m 3,8 km/h (1 Bft) N-NW 329 0 min 32 W/m 14,8 C 16,8 C 8,0 km/h (2 Bft)
11.06.2019 21:00 16,8 C 89 % 1011,4 hPa 0,0 l/m 2,1 km/h (1 Bft) N-NW 329 0 min 28 W/m 15,0 C 16,8 C 4,8 km/h (1 Bft)
11.06.2019 21:03 16,7 C 89 % 1011,3 hPa 0,0 l/m 1,8 km/h (1 Bft) N-NW 329 0 min 23 W/m 14,9 C 16,7 C 3,2 km/h (1 Bft)
11.06.2019 21:06 16,7 C 89 % 1011,1 hPa 0,0 l/m 3,0 km/h (1 Bft) N-NW 329 0 min 21 W/m 14,9 C 16,7 C 4,8 km/h (1 Bft)
11.06.2019 21:09 16,7 C 89 % 1011,3 hPa 0,0 l/m 3,7 km/h (1 Bft) N-NW 329 0 min 19 W/m 14,9 C 16,7 C 6,4 km/h (2 Bft)
11.06.2019 21:12 16,7 C 89 % 1011,4 hPa 0,0 l/m 2,5 km/h (1 Bft) N-NW 329 0 min 19 W/m 14,9 C 16,7 C 6,4 km/h (2 Bft)
11.06.2019 21:15 16,6 C 89 % 1011,4 hPa 0,0 l/m 3,6 km/h (1 Bft) N-NW 329 0 min 21 W/m 14,8 C 16,6 C 4,8 km/h (1 Bft)
11.06.2019 21:18 16,6 C 89 % 1011,4 hPa 0,0 l/m 3,3 km/h (1 Bft) N-NW 329 0 min 19 W/m 14,8 C 16,6 C 6,4 km/h (2 Bft)
11.06.2019 21:21 16,6 C 89 % 1011,3 hPa 0,0 l/m 2,9 km/h (1 Bft) N-NW 329 0 min 14 W/m 14,8 C 16,6 C 6,4 km/h (2 Bft)
11.06.2019 21:24 16,6 C 89 % 1011,3 hPa 0,0 l/m 3,3 km/h (1 Bft) N-NW 329 0 min 12 W/m 14,8 C 16,6 C 8,0 km/h (2 Bft)
11.06.2019 21:27 16,5 C 89 % 1011,3 hPa 0,0 l/m 4,1 km/h (1 Bft) N-NW 329 0 min 12 W/m 14,7 C 16,5 C 9,7 km/h (2 Bft)
11.06.2019 21:30 16,4 C 89 % 1011,3 hPa 0,0 l/m 4,8 km/h (1 Bft) N-NW 329 0 min 11 W/m 14,6 C 16,4 C 8,0 km/h (2 Bft)
11.06.2019 21:33 16,4 C 89 % 1011,3 hPa 0,0 l/m 4,4 km/h (1 Bft) N-NW 329 0 min 9 W/m 14,6 C 16,4 C 9,7 km/h (2 Bft)
11.06.2019 21:36 16,4 C 89 % 1011,3 hPa 0,0 l/m 2,4 km/h (1 Bft) N-NW 329 0 min 9 W/m 14,6 C 16,4 C 4,8 km/h (1 Bft)
11.06.2019 21:39 16,3 C 89 % 1011,3 hPa 0,0 l/m 3,7 km/h (1 Bft) N-NW 327 0 min 7 W/m 14,5 C 16,3 C 9,7 km/h (2 Bft)
11.06.2019 21:42 16,3 C 89 % 1011,3 hPa 0,0 l/m 4,6 km/h (1 Bft) N-NW 327 0 min 5 W/m 14,5 C 16,3 C 6,4 km/h (2 Bft)
11.06.2019 21:45 16,2 C 89 % 1011,2 hPa 0,0 l/m 5,9 km/h (2 Bft) N-NW 327 0 min 5 W/m 14,4 C 16,2 C 9,7 km/h (2 Bft)
11.06.2019 21:48 16,2 C 89 % 1011,2 hPa 0,0 l/m 5,3 km/h (1 Bft) N-NW 327 0 min 0 W/m 14,4 C 16,2 C 9,7 km/h (2 Bft)
11.06.2019 21:51 16,2 C 89 % 1011,3 hPa 0,0 l/m 4,6 km/h (1 Bft) N-NW 327 0 min 0 W/m 14,4 C 16,2 C 12,9 km/h (3 Bft)
11.06.2019 21:54 16,2 C 89 % 1011,5 hPa 0,0 l/m 4,2 km/h (1 Bft) N-NW 327 0 min 0 W/m 14,4 C 16,2 C 6,4 km/h (2 Bft)
11.06.2019 21:57 16,3 C 90 % 1011,5 hPa 0,0 l/m 6,8 km/h (2 Bft) N-NW 327 0 min 0 W/m 14,7 C 16,1 C 14,5 km/h (3 Bft)
11.06.2019 22:00 16,2 C 89 % 1011,5 hPa 0,0 l/m 5,9 km/h (2 Bft) N-NW 327 0 min 0 W/m 14,4 C 16,2 C 12,9 km/h (3 Bft)
11.06.2019 22:03 16,2 C 89 % 1011,6 hPa 0,0 l/m 4,9 km/h (1 Bft) N-NW 327 0 min 0 W/m 14,4 C 16,2 C 9,7 km/h (2 Bft)
11.06.2019 22:06 16,1 C 90 % 1011,6 hPa 0,0 l/m 8,6 km/h (2 Bft) NW 323 0 min 0 W/m 14,5 C 15,0 C 14,5 km/h (3 Bft)
11.06.2019 22:09 16,1 C 90 % 1011,7 hPa 0,0 l/m 5,8 km/h (2 Bft) NW 324 0 min 0 W/m 14,5 C 16,1 C 9,7 km/h (2 Bft)
11.06.2019 22:12 16,0 C 90 % 1011,6 hPa 0,0 l/m 6,9 km/h (2 Bft) NW 325 0 min 0 W/m 14,4 C 15,7 C 12,9 km/h (3 Bft)
11.06.2019 22:15 15,9 C 90 % 1011,5 hPa 0,0 l/m 7,6 km/h (2 Bft) NW 321 0 min 0 W/m 14,3 C 15,3 C 12,9 km/h (3 Bft)
11.06.2019 22:18 15,9 C 90 % 1011,5 hPa 0,0 l/m 5,4 km/h (2 Bft) NW 321 0 min 0 W/m 14,3 C 15,9 C 12,9 km/h (3 Bft)
11.06.2019 22:21 15,9 C 91 % 1011,3 hPa 0,0 l/m 4,0 km/h (1 Bft) N-NW 331 0 min 0 W/m 14,4 C 15,9 C 9,7 km/h (2 Bft)
11.06.2019 22:24 15,8 C 90 % 1011,3 hPa 0,0 l/m 6,8 km/h (2 Bft) N-NW 336 0 min 0 W/m 14,2 C 15,6 C 12,9 km/h (3 Bft)
11.06.2019 22:27 15,8 C 91 % 1011,4 hPa 0,0 l/m 7,8 km/h (2 Bft) NW 316 0 min 0 W/m 14,3 C 15,0 C 16,1 km/h (3 Bft)
11.06.2019 22:30 15,7 C 91 % 1011,5 hPa 0,0 l/m 6,4 km/h (2 Bft) NW 319 0 min 0 W/m 14,2 C 15,7 C 9,7 km/h (2 Bft)
11.06.2019 22:33 15,6 C 91 % 1011,3 hPa 0,0 l/m 6,4 km/h (2 Bft) NW 319 0 min 0 W/m 14,1 C 15,6 C 12,9 km/h (3 Bft)
11.06.2019 22:36 15,6 C 91 % 1011,4 hPa 0,0 l/m 6,3 km/h (2 Bft) NW 320 0 min 0 W/m 14,1 C 15,6 C 12,9 km/h (3 Bft)
11.06.2019 22:39 15,6 C 91 % 1011,4 hPa 0,0 l/m 3,9 km/h (1 Bft) NW 320 0 min 0 W/m 14,1 C 15,6 C 8,0 km/h (2 Bft)
11.06.2019 22:42 15,5 C 91 % 1011,5 hPa 0,0 l/m 4,7 km/h (1 Bft) NW 320 0 min 0 W/m 14,0 C 15,5 C 8,0 km/h (2 Bft)
11.06.2019 22:45 15,5 C 91 % 1011,7 hPa 0,0 l/m 4,0 km/h (1 Bft) NW 320 0 min 0 W/m 14,0 C 15,5 C 8,0 km/h (2 Bft)
11.06.2019 22:48 15,4 C 91 % 1011,7 hPa 0,0 l/m 3,1 km/h (1 Bft) NW 320 0 min 0 W/m 13,9 C 15,4 C 6,4 km/h (2 Bft)
11.06.2019 22:51 15,4 C 91 % 1011,8 hPa 0,0 l/m 3,7 km/h (1 Bft) NW 320 0 min 0 W/m 13,9 C 15,4 C 8,0 km/h (2 Bft)
11.06.2019 22:54 15,3 C 91 % 1011,8 hPa 0,0 l/m 5,2 km/h (1 Bft) NW 320 0 min 0 W/m 13,8 C 15,3 C 8,0 km/h (2 Bft)
11.06.2019 22:57 15,3 C 92 % 1011,5 hPa 0,0 l/m 4,6 km/h (1 Bft) NW 320 0 min 0 W/m 14,0 C 15,3 C 9,7 km/h (2 Bft)
11.06.2019 23:00 15,3 C 92 % 1011,6 hPa 0,0 l/m 5,1 km/h (1 Bft) NW 320 0 min 0 W/m 14,0 C 15,3 C 9,7 km/h (2 Bft)
11.06.2019 23:03 15,3 C 92 % 1011,7 hPa 0,0 l/m 3,4 km/h (1 Bft) NW 320 0 min 0 W/m 14,0 C 15,3 C 8,0 km/h (2 Bft)
11.06.2019 23:06 15,2 C 92 % 1011,7 hPa 0,0 l/m 1,3 km/h (1 Bft) NW 320 0 min 0 W/m 13,9 C 15,2 C 4,8 km/h (1 Bft)
11.06.2019 23:09 15,1 C 92 % 1011,8 hPa 0,0 l/m 4,1 km/h (1 Bft) NW 320 0 min 0 W/m 13,8 C 15,1 C 8,0 km/h (2 Bft)
11.06.2019 23:12 15,2 C 92 % 1011,8 hPa 0,0 l/m 4,9 km/h (1 Bft) NW 320 0 min 0 W/m 13,9 C 15,2 C 8,0 km/h (2 Bft)
11.06.2019 23:15 15,1 C 92 % 1011,7 hPa 0,0 l/m 4,1 km/h (1 Bft) NW 320 0 min 0 W/m 13,8 C 15,1 C 8,0 km/h (2 Bft)
11.06.2019 23:18 15,1 C 92 % 1011,6 hPa 0,0 l/m 4,8 km/h (1 Bft) N-NW 338 0 min 0 W/m 13,8 C 15,1 C 9,7 km/h (2 Bft)
11.06.2019 23:21 15,1 C 92 % 1011,5 hPa 0,0 l/m 4,7 km/h (1 Bft) N-NW 341 0 min 0 W/m 13,8 C 15,1 C 8,0 km/h (2 Bft)
11.06.2019 23:24 15,1 C 92 % 1011,2 hPa 0,0 l/m 5,0 km/h (1 Bft) N-NW 333 0 min 0 W/m 13,8 C 15,1 C 9,7 km/h (2 Bft)
11.06.2019 23:27 15,0 C 92 % 1011,2 hPa 0,0 l/m 4,6 km/h (1 Bft) N-NW 333 0 min 0 W/m 13,7 C 15,0 C 9,7 km/h (2 Bft)
11.06.2019 23:30 15,1 C 92 % 1011,0 hPa 0,0 l/m 5,4 km/h (2 Bft) N-NW 333 0 min 0 W/m 13,8 C 15,1 C 9,7 km/h (2 Bft)
11.06.2019 23:33 15,1 C 92 % 1011,0 hPa 0,0 l/m 6,3 km/h (2 Bft) N-NW 333 0 min 0 W/m 13,8 C 15,1 C 12,9 km/h (3 Bft)
11.06.2019 23:36 15,0 C 92 % 1010,9 hPa 0,0 l/m 7,6 km/h (2 Bft) N-NW 338 0 min 0 W/m 13,7 C 14,3 C 14,5 km/h (3 Bft)
11.06.2019 23:39 15,0 C 92 % 1010,8 hPa 0,0 l/m 7,6 km/h (2 Bft) N-NW 337 0 min 0 W/m 13,7 C 14,3 C 14,5 km/h (3 Bft)
11.06.2019 23:42 15,0 C 92 % 1010,8 hPa 0,0 l/m 7,6 km/h (2 Bft) N-NW 340 0 min 0 W/m 13,7 C 14,3 C 16,1 km/h (3 Bft)
11.06.2019 23:45 14,9 C 92 % 1010,9 hPa 0,0 l/m 9,2 km/h (2 Bft) N-NW 327 0 min 0 W/m 13,6 C 13,4 C 14,5 km/h (3 Bft)
11.06.2019 23:48 15,0 C 92 % 1010,9 hPa 0,0 l/m 6,7 km/h (2 Bft) N-NW 335 0 min 0 W/m 13,7 C 14,8 C 14,5 km/h (3 Bft)
11.06.2019 23:51 15,0 C 92 % 1011,1 hPa 0,0 l/m 4,9 km/h (1 Bft) N-NW 344 0 min 0 W/m 13,7 C 15,0 C 14,5 km/h (3 Bft)
11.06.2019 23:54 15,0 C 92 % 1011,1 hPa 0,0 l/m 6,8 km/h (2 Bft) N-NW 333 0 min 0 W/m 13,7 C 14,8 C 12,9 km/h (3 Bft)
11.06.2019 23:57 15,1 C 92 % 1010,8 hPa 0,0 l/m 8,8 km/h (2 Bft) N-NW 332 0 min 0 W/m 13,8 C 13,8 C 16,1 km/h (3 Bft)
_ Min-Zeit 04:45 16:45 04:33 - 05:42 - - - - 04:45 23:45 05:42
Minimum _ 14,4 C 76 % 1007,7 hPa - 0,0 km/h (0 Bft) - - - - 13,6 C 13,4 C 0,0 km/h (0 Bft)
_ Max-Zeit 16:45 10:39 22:51 14:15 16:15 - - 11:45 15:30 14:45 19:15 17:09
Maximum _ 20,5 C 97 % 1011,8 hPa 1,0 l/m 17,5 km/h
SW (3 Bft)
- - 3 min 884 W/m 18,3 C 19,4 C 29,0 km/h
W (5 Bft)
Durchschnitt _ 16,6 C 91 % 1009,4 hPa #6,4 l/m 5,3 km/h (1 Bft) SW - #2:54 h 188 W/m 15,1 C 16,2 C 10,8 km/h (2 Bft)
2019 Cux-Wetter.de -Die Nutzung der Wetterdaten nur mit ausdrcklicher Genehmigung